CU2ZG-4 Weather Reports


Display with metric or nautical units.
time (UTC)temp
F
wind
direction
speed
MPH
gust
MPH
rain 1hr
in
rain 24hr
in
rain mn
in
humidity
%
barometer
mb
20260507062912 55 21 0.0 1.0 0.00 0.10 0.00 98 1011.2
20260507062812 55 33 2.0 2.0 0.00 0.10 0.00 98 1011.2
20260507062712 55 6 1.0 2.0 0.00 0.10 0.00 98 1011.2
20260507062612 55 244 1.0 1.0 0.00 0.10 0.00 98 1011.2
20260507062512 55 13 1.0 1.0 0.00 0.10 0.00 98 1011.2
20260507062412 55 10 0.0 0.0 0.00 0.10 0.00 98 1011.5
20260507062312 55 10 0.0 1.0 0.00 0.10 0.00 98 1011.5
20260507062212 55 16 0.0 0.0 0.00 0.10 0.00 98 1011.5
20260507062112 55 14 0.0 1.0 0.00 0.10 0.00 98 1011.5
20260507062012 55 14 0.0 1.0 0.00 0.10 0.00 98 1011.5
20260507061912 55 13 0.0 0.0 0.00 0.10 0.00 98 1011.5
20260507061812 55 8 0.0 1.0 0.00 0.10 0.00 98 1011.5
20260507061712 55 6 0.0 1.0 0.00 0.10 0.00 98 1011.5
20260507061612 55 30 0.0 1.0 0.00 0.10 0.00 97 1011.5
20260507061512 55 15 0.0 1.0 0.00 0.10 0.00 97 1011.5
20260507061412 55 23 0.0 0.0 0.00 0.10 0.00 98 1011.5
20260507061312 55 6 1.0 2.0 0.00 0.10 0.00 97 1011.5
20260507061212 55 16 1.0 2.0 0.00 0.10 0.00 97 1011.5
20260507061112 55 88 0.0 1.0 0.00 0.10 0.00 97 1011.5
20260507061012 55 30 1.0 1.0 0.00 0.10 0.00 97 1011.5
20260507060912 55 17 1.0 1.0 0.00 0.10 0.00 97 1011.5
20260507060812 55 49 0.0 0.0 0.00 0.10 0.00 97 1011.5
20260507060712 55 49 0.0 0.0 0.00 0.10 0.00 97 1011.5
20260507060612 55 7 0.0 1.0 0.00 0.10 0.00 97 1011.5
20260507060512 55 92 2.0 3.0 0.00 0.10 0.00 97 1011.5
20260507060412 55 22 1.0 3.0 0.00 0.10 0.00 97 1011.5
20260507060312 55 20 2.0 2.0 0.00 0.10 0.00 97 1011.5
20260507060212 55 37 1.0 3.0 0.00 0.10 0.00 97 1011.5
20260507060112 55 57 2.0 2.0 0.00 0.10 0.00 97 1011.5
20260507060012 55 207 1.0 1.0 0.00 0.10 0.00 97 1011.5
20260507055912 55 33 1.0 2.0 0.00 0.10 0.00 97 1011.5
20260507055812 55 129 1.0 2.0 0.00 0.10 0.00 97 1011.5
20260507055712 55 48 1.0 2.0 0.00 0.10 0.00 97 1011.5
20260507055612 55 150 1.0 1.0 0.00 0.10 0.00 97 1011.5
20260507055512 55 14 1.0 2.0 0.00 0.10 0.00 97 1011.5
20260507055412 55 14 1.0 2.0 0.00 0.10 0.00 97 1011.5
20260507055312 55 5 1.0 1.0 0.00 0.10 0.00 97 1011.5
20260507055212 55 160 2.0 3.0 0.00 0.10 0.00 97 1011.5
20260507055112 55 55 2.0 2.0 0.00 0.10 0.00 97 1011.5
20260507055012 55 42 1.0 1.0 0.00 0.10 0.00 97 1011.5
20260507054912 55 194 2.0 2.0 0.00 0.10 0.00 97 1011.5
20260507054812 55 151 2.0 2.0 0.00 0.10 0.00 97 1011.5
20260507054712 55 224 2.0 4.0 0.00 0.10 0.00 97 1011.5
20260507054612 55 35 2.0 3.0 0.00 0.10 0.00 97 1011.5
20260507054512 55 57 1.0 3.0 0.00 0.10 0.00 97 1011.5
20260507054412 55 168 1.0 2.0 0.00 0.10 0.00 98 1011.5
20260507054312 55 19 2.0 3.0 0.00 0.10 0.00 97 1011.5
20260507054212 55 188 2.0 4.0 0.00 0.10 0.00 98 1011.5
20260507054112 55 188 2.0 4.0 0.00 0.10 0.00 98 1011.5
20260507054012 55 245 2.0 2.0 0.00 0.10 0.00 98 1011.5
20260507053912 55 284 2.0 5.0 0.00 0.10 0.00 98 1011.5
20260507053812 55 77 1.0 1.0 0.00 0.10 0.00 98 1011.5
20260507053712 55 198 1.0 1.0 0.00 0.10 0.00 98 1011.5
20260507053612 55 50 1.0 1.0 0.00 0.10 0.00 98 1011.8
20260507053512 55 346 2.0 3.0 0.00 0.10 0.00 98 1011.8
20260507053412 55 263 1.0 2.0 0.00 0.10 0.00 98 1011.8
20260507053312 55 16 1.0 1.0 0.00 0.10 0.00 98 1011.8
20260507053212 55 109 1.0 1.0 0.00 0.10 0.00 98 1011.8
20260507053112 55 96 1.0 1.0 0.00 0.10 0.00 98 1011.8
20260507053012 55 47 1.0 1.0 0.00 0.10 0.00 98 1011.8
20260507052912 55 216 1.0 1.0 0.00 0.10 0.00 98 1011.8
20260507052812 55 216 1.0 1.0 0.00 0.10 0.00 98 1011.8
20260507052712 55 7 2.0 2.0 0.00 0.10 0.00 98 1011.8
20260507052612 55 178 2.0 2.0 0.00 0.10 0.00 98 1011.8
20260507052512 55 61 2.0 2.0 0.00 0.10 0.00 98 1011.8
20260507052412 55 266 1.0 2.0 0.00 0.10 0.00 98 1012.2
20260507052312 55 179 2.0 4.0 0.00 0.10 0.00 98 1012.2
20260507052212 55 138 1.0 2.0 0.00 0.10 0.00 98 1012.2
20260507052112 55 203 1.0 4.0 0.00 0.10 0.00 98 1012.2
20260507052012 55 91 3.0 6.0 0.00 0.10 0.00 98 1012.2
20260507051912 55 5 2.0 2.0 0.00 0.10 0.00 98 1012.2
20260507051812 55 10 1.0 1.0 0.00 0.10 0.00 98 1012.2
20260507051712 55 192 2.0 4.0 0.00 0.10 0.00 98 1012.2
20260507051612 55 131 3.0 3.0 0.00 0.10 0.00 98 1012.2
20260507051512 55 131 3.0 3.0 0.00 0.10 0.00 98 1012.2
20260507051412 55 37 2.0 4.0 0.00 0.10 0.00 98 1012.2
20260507051312 55 75 1.0 1.0 0.00 0.10 0.00 98 1012.2
20260507051212 55 338 2.0 6.0 0.00 0.10 0.00 98 1012.2
20260507051112 55 206 1.0 2.0 0.00 0.10 0.00 98 1012.2
20260507051012 55 187 4.0 6.0 0.00 0.10 0.00 98 1012.2
20260507050912 55 23 2.0 3.0 0.00 0.10 0.00 98 1012.2
20260507050812 55 203 1.0 2.0 0.00 0.10 0.00 98 1012.2
20260507050712 55 36 1.0 2.0 0.00 0.10 0.00 98 1012.2
20260507050612 55 18 1.0 1.0 0.00 0.10 0.00 98 1012.2
20260507050512 55 73 2.0 3.0 0.00 0.10 0.00 98 1012.2
20260507050412 55 18 2.0 3.0 0.00 0.10 0.00 98 1012.2
20260507050312 55 18 2.0 3.0 0.00 0.10 0.00 98 1012.2
20260507050212 55 316 1.0 1.0 0.05 0.10 0.00 98 1012.2
20260507050112 55 103 1.0 4.0 0.05 0.10 0.00 98 1012.2
20260507050012 55 29 2.0 2.0 0.05 0.10 0.00 98 1012.2
20260507045912 55 183 2.0 2.0 0.05 0.10 0.00 98 1012.2
20260507045812 55 237 1.0 2.0 0.05 0.10 0.00 98 1012.2
20260507045712 55 229 2.0 2.0 0.05 0.10 0.00 98 1012.2
20260507045612 55 272 3.0 3.0 0.05 0.10 0.00 98 1012.2
20260507045512 54 20 2.0 3.0 0.05 0.10 0.00 98 1012.2
20260507045412 54 25 3.0 3.0 0.05 0.10 0.00 98 1012.2
20260507045312 54 97 2.0 3.0 0.05 0.10 0.00 98 1012.2
20260507045212 54 187 2.0 4.0 0.00 0.09 0.00 98 1012.2
20260507045112 55 180 2.0 3.0 0.00 0.09 0.00 98 1012.2
20260507045012 55 7 2.0 3.0 0.00 0.09 0.00 98 1012.2
20260507044912 55 7 2.0 3.0 0.00 0.09 0.00 98 1012.2
20260507044812 54 14 0.0 1.0 0.00 0.09 0.00 98 1012.5
20260507044712 54 13 1.0 2.0 0.00 0.09 0.00 98 1012.5
20260507044612 54 271 0.0 3.0 0.00 0.09 0.00 98 1012.5
20260507044512 54 28 2.0 3.0 0.00 0.09 0.00 98 1012.5
20260507044412 54 7 1.0 1.0 0.00 0.09 0.00 98 1012.5
20260507044312 54 331 2.0 3.0 0.00 0.09 0.00 98 1012.5
20260507044212 54 19 1.0 4.0 0.00 0.09 0.00 98 1012.5
20260507044112 55 8 1.0 2.0 0.00 0.09 0.00 98 1012.5
20260507044012 55 15 0.0 0.0 0.00 0.09 0.00 98 1012.5
20260507043912 54 33 1.0 1.0 0.00 0.09 0.00 98 1012.5
20260507043812 54 28 1.0 1.0 0.00 0.09 0.00 98 1012.5
20260507043712 54 28 1.0 1.0 0.00 0.09 0.00 98 1012.5
20260507043612 54 96 1.0 1.0 0.00 0.09 0.00 98 1013.2
20260507043512 54 77 1.0 1.0 0.00 0.09 0.00 98 1013.2
20260507043412 55 29 1.0 1.0 0.00 0.09 0.00 98 1013.2
20260507043312 54 50 1.0 1.0 0.00 0.09 0.00 98 1013.2
20260507043212 54 21 1.0 2.0 0.00 0.09 0.00 98 1013.2
20260507043112 54 298 0.0 1.0 0.00 0.09 0.00 98 1013.2
20260507043012 54 28 1.0 2.0 0.00 0.09 0.00 98 1013.2
20260507042912 54 19 1.0 1.0 0.00 0.09 0.00 97 1013.2
20260507042812 54 29 1.0 1.0 0.00 0.09 0.00 97 1013.2
20260507042712 54 30 1.0 2.0 0.00 0.09 0.00 97 1013.2
20260507042612 54 10 0.0 1.0 0.00 0.09 0.00 97 1013.2
20260507042512 54 10 0.0 1.0 0.00 0.09 0.00 97 1013.2
20260507042412 54 7 1.0 3.0 0.05 0.09 0.00 97 1013.6
20260507042312 54 15 2.0 4.0 0.05 0.09 0.00 97 1013.6
20260507042212 54 28 1.0 2.0 0.05 0.09 0.00 97 1013.6
20260507042112 54 12 2.0 2.0 0.05 0.09 0.00 97 1013.6
20260507042012 54 43 1.0 2.0 0.05 0.09 0.00 97 1013.6
20260507041912 54 100 2.0 2.0 0.05 0.09 0.00 97 1013.6
20260507041812 54 261 1.0 4.0 0.05 0.09 0.00 97 1013.6
20260507041712 54 21 2.0 3.0 0.10 0.09 0.00 97 1013.6
20260507041612 54 63 2.0 3.0 0.10 0.09 0.00 97 1013.6
20260507041512 54 43 1.0 3.0 0.10 0.09 0.00 97 1013.6
20260507041412 54 166 3.0 3.0 0.05 0.07 0.00 97 1013.6
20260507041312 54 166 3.0 3.0 0.05 0.07 0.00 97 1013.6
20260507041212 55 18 1.0 2.0 0.05 0.07 0.00 97 1013.9
20260507041112 54 106 2.0 4.0 0.05 0.07 0.00 97 1013.9
20260507041012 54 84 1.0 2.0 0.05 0.07 0.00 97 1013.9
20260507040912 54 177 2.0 4.0 0.05 0.07 0.00 97 1013.9
20260507040812 54 220 3.0 6.0 0.10 0.07 0.00 97 1013.9
20260507040712 54 118 4.0 6.0 0.10 0.07 0.00 97 1013.9
20260507040612 55 14 1.0 3.0 0.05 0.07 0.00 97 1013.9
20260507040512 55 75 2.0 4.0 0.05 0.07 0.00 97 1013.9
20260507040412 55 129 1.0 1.0 0.05 0.07 0.00 97 1013.9
20260507040312 55 241 2.0 6.0 0.05 0.07 0.00 97 1013.9
20260507040212 55 25 1.0 2.0 0.05 0.07 0.00 97 1013.9
20260507040112 55 27 2.0 2.0 0.05 0.07 0.00 97 1013.9
20260507040012 55 27 2.0 2.0 0.05 0.07 0.00 97 1013.9
20260507035912 55 170 2.0 4.0 0.05 0.07 0.00 96 1013.9
20260507035812 55 85 3.0 3.0 0.05 0.07 0.00 96 1013.9
20260507035712 55 93 1.0 2.0 0.00 0.07 0.00 96 1013.9
20260507035612 54 100 2.0 2.0 0.00 0.07 0.00 96 1013.9
20260507035512 54 201 4.0 5.0 0.00 0.07 0.00 96 1013.9
20260507035412 54 175 4.0 6.0 0.00 0.07 0.00 96 1013.9
20260507035312 55 220 2.0 4.0 0.00 0.07 0.00 96 1013.9
20260507035212 54 313 4.0 5.0 0.00 0.07 0.00 96 1013.9
20260507035112 54 147 4.0 5.0 0.00 0.07 0.00 96 1013.9
20260507035012 54 319 3.0 6.0 0.00 0.07 0.00 96 1013.9
20260507034912 54 319 3.0 6.0 0.00 0.07 0.00 96 1013.9
20260507034812 54 129 4.0 5.0 0.00 0.07 0.00 96 1014.2
20260507034712 54 34 2.0 4.0 0.00 0.07 0.00 96 1014.2
20260507034612 54 120 1.0 1.0 0.00 0.07 0.00 96 1014.2
20260507034512 54 16 1.0 3.0 0.05 0.07 0.00 96 1014.2
20260507034412 54 14 4.0 7.0 0.05 0.07 0.00 96 1014.2
20260507034312 54 16 3.0 3.0 0.05 0.07 0.00 96 1014.2
20260507034212 55 3 2.0 3.0 0.05 0.07 0.00 96 1014.2
20260507034112 54 188 4.0 5.0 0.05 0.07 0.00 95 1014.2
20260507034012 54 100 2.0 3.0 0.05 0.07 0.00 95 1014.2
20260507033912 54 187 3.0 5.0 0.05 0.07 0.00 95 1014.2
20260507033812 54 196 3.0 4.0 0.05 0.07 0.00 95 1014.2
20260507033712 54 51 5.0 7.0 0.10 0.07 0.00 94 1014.2
20260507033612 54 51 5.0 7.0 0.10 0.07 0.00 94 1014.2
20260507033512 54 8 3.0 4.0 0.05 0.05 0.00 95 1014.2
20260507033412 54 240 2.0 2.0 0.05 0.05 0.00 95 1014.2
20260507033312 54 170 4.0 4.0 0.05 0.05 0.00 96 1014.2
20260507033212 55 212 1.0 4.0 0.10 0.05 0.00 96 1014.2
20260507033112 54 166 2.0 2.0 0.10 0.05 0.00 96 1014.2
20260507033012 54 27 1.0 1.0 0.10 0.05 0.00 96 1014.2
20260507032912 54 40 1.0 1.0 0.10 0.05 0.00 95 1014.2
20260507032812 54 191 2.0 2.0 0.10 0.05 0.00 95 1014.2
20260507032712 55 260 2.0 3.0 0.05 0.05 0.00 95 1014.2
20260507032612 55 90 2.0 3.0 0.05 0.05 0.00 95 1014.2
20260507032512 55 36 1.0 2.0 0.05 0.05 0.00 95 1014.2
20260507032412 55 118 2.0 3.0 0.05 0.05 0.00 95 1014.2
20260507032312 55 118 2.0 3.0 0.05 0.05 0.00 95 1014.2
20260507032212 55 57 3.0 4.0 0.05 0.05 0.00 94 1014.2
20260507032112 55 38 1.0 1.0 0.00 0.03 0.00 94 1014.2
20260507032012 55 172 1.0 2.0 0.00 0.03 0.00 94 1014.2
20260507031912 55 192 2.0 2.0 0.00 0.03 0.00 94 1014.2
20260507031812 55 77 2.0 2.0 0.00 0.03 0.00 94 1014.2
20260507031712 55 173 1.0 3.0 0.00 0.03 0.00 94 1014.2
20260507031612 55 83 2.0 2.0 0.00 0.03 0.00 94 1014.2
20260507031512 55 88 2.0 2.0 0.00 0.03 0.00 94 1014.2
20260507031412 55 359 1.0 2.0 0.00 0.03 0.00 94 1014.2
20260507031312 55 0 1.0 2.0 0.00 0.03 0.00 94 1014.2
20260507031212 55 358 2.0 2.0 0.00 0.03 0.00 94 1014.6
20260507031112 55 70 2.0 2.0 0.00 0.03 0.00 95 1014.6
20260507031012 55 70 2.0 2.0 0.00 0.03 0.00 95 1014.6
20260507030912 55 14 2.0 3.0 0.05 0.03 0.00 94 1014.6
20260507030812 55 14 1.0 4.0 0.05 0.03 0.00 95 1014.6
20260507030712 55 287 3.0 6.0 0.05 0.03 0.00 94 1014.6
20260507030612 55 16 1.0 2.0 0.05 0.03 0.00 95 1014.6
20260507030512 54 323 2.0 2.0 0.05 0.03 0.00 95 1014.6
20260507030412 54 266 2.0 3.0 0.05 0.03 0.00 94 1014.6
20260507030312 55 167 3.0 4.0 0.05 0.03 0.00 95 1014.6
20260507030212 55 164 1.0 2.0 0.05 0.03 0.00 95 1014.6
20260507030112 55 162 1.0 3.0 0.05 0.03 0.00 94 1014.6
20260507030012 55 177 4.0 5.0 0.05 0.03 0.00 93 1014.6
20260507025912 55 13 2.0 3.0 0.00 0.02 0.00 93 1014.6
20260507025812 55 261 1.0 2.0 0.00 0.02 0.00 92 1014.6
20260507025712 55 261 1.0 2.0 0.00 0.02 0.00 92 1014.6
20260507025612 55 9 1.0 2.0 0.00 0.02 0.00 91 1014.6
20260507025512 55 120 2.0 3.0 0.00 0.02 0.00 91 1014.6
20260507025412 55 168 4.0 6.0 0.00 0.02 0.00 93 1014.6
20260507025312 55 222 3.0 4.0 0.00 0.02 0.00 92 1014.6
20260507025212 55 138 3.0 6.0 0.00 0.02 0.00 92 1014.6
20260507025112 55 152 3.0 3.0 0.00 0.02 0.00 92 1014.6
20260507025012 54 339 4.0 7.0 0.00 0.02 0.00 92 1014.6
20260507024912 54 109 1.0 3.0 0.00 0.02 0.00 92 1014.6
20260507024812 54 252 2.0 3.0 0.00 0.02 0.00 93 1014.6
20260507024712 54 55 2.0 3.0 0.00 0.02 0.00 93 1014.6
20260507024612 54 165 2.0 3.0 0.00 0.02 0.00 94 1014.6
20260507024512 54 154 2.0 2.0 0.00 0.02 0.00 94 1014.6
20260507024412 54 154 2.0 2.0 0.00 0.02 0.00 94 1014.6
20260507024312 54 127 1.0 1.0 0.00 0.02 0.00 95 1014.6
20260507024212 54 93 2.0 2.0 0.00 0.02 0.00 94 1014.6
20260507024112 54 77 2.0 2.0 0.00 0.02 0.00 94 1014.6
20260507024012 54 169 2.0 3.0 0.00 0.02 0.00 94 1014.6
20260507023912 54 180 2.0 3.0 0.00 0.02 0.00 93 1014.6
20260507023812 54 162 2.0 3.0 0.00 0.02 0.00 94 1014.6
20260507023712 54 23 3.0 4.0 0.00 0.02 0.00 95 1014.6
20260507023612 54 230 2.0 3.0 0.00 0.02 0.00 96 1015.2
20260507023512 54 61 1.0 4.0 0.00 0.02 0.00 96 1015.2
20260507023412 54 203 2.0 3.0 0.05 0.02 0.00 96 1015.2
20260507023312 54 23 2.0 2.0 0.05 0.02 0.00 97 1015.2
20260507023212 54 112 2.0 2.0 0.10 0.02 0.00 97 1015.2
20260507023112 54 112 2.0 2.0 0.10 0.02 0.00 97 1015.2
20260507023012 54 13 1.0 2.0 0.10 0.02 0.00 97 1015.2
20260507022912 54 206 1.0 1.0 0.15 0.02 0.00 97 1015.2
20260507022812 54 250 1.0 3.0 0.15 0.02 0.00 97 1015.2
20260507022712 54 357 1.0 2.0 0.15 0.02 0.00 97 1015.2
20260507022612 54 17 1.0 3.0 0.15 0.02 0.00 97 1015.2
20260507022512 54 160 2.0 4.0 0.15 0.02 0.00 96 1015.2
20260507022412 54 69 1.0 6.0 0.10 0.01 0.00 96 1015.2
20260507022312 54 153 2.0 3.0 0.10 0.01 0.00 96 1015.2
20260507022212 55 114 2.0 3.0 0.10 0.01 0.00 96 1015.2
20260507022112 55 77 1.0 2.0 0.05 0.00 0.00 95 1015.2
20260507022012 55 342 2.0 3.0 0.05 0.00 0.00 94 1015.2
20260507021912 55 323 3.0 4.0 0.00 0.00 0.00 92 1015.2
20260507021812 55 323 3.0 4.0 0.00 0.00 0.00 92 1015.2
20260507021712 55 40 1.0 2.0 0.00 0.00 0.00 89 1015.2
20260507021612 55 270 1.0 4.0 0.00 0.00 0.00 88 1015.2
20260507021512 55 97 4.0 4.0 0.00 0.00 0.00 88 1015.2
20260507021412 55 196 1.0 2.0 0.00 0.00 0.00 89 1015.2
20260507021312 55 22 0.0 1.0 0.00 0.00 0.00 89 1015.2
20260507021212 55 193 2.0 2.0 0.00 0.00 0.00 89 1015.9
20260507021112 55 174 2.0 3.0 0.00 0.00 0.00 90 1015.9
20260507021012 55 268 1.0 2.0 0.00 0.00 0.00 91 1015.9
20260507020912 55 138 1.0 2.0 0.00 0.00 0.00 91 1015.9
20260507020812 55 216 2.0 4.0 0.00 0.00 0.00 92 1015.9
20260507020712 55 154 2.0 6.0 0.00 0.00 0.00 92 1015.9
20260507020612 55 118 2.0 4.0 0.05 0.00 0.00 93 1015.9
20260507020512 55 118 2.0 4.0 0.05 0.00 0.00 93 1015.9
20260507020412 55 57 2.0 3.0 0.05 0.00 0.00 93 1015.9
20260507020312 55 140 1.0 1.0 0.05 0.00 0.00 93 1015.9
20260507020212 55 68 2.0 3.0 0.05 0.00 0.00 93 1015.9
20260507020112 55 180 2.0 4.0 0.05 0.00 0.00 93 1015.9
20260507020012 55 53 4.0 4.0 0.05 0.00 0.00 93 1016.3
20260507015912 55 33 4.0 7.0 0.05 0.00 0.00 92 1016.3
20260507015812 55 235 3.0 4.0 0.05 0.00 0.00 92 1016.3
20260507015712 55 50 2.0 2.0 0.05 0.00 0.00 91 1016.3
20260507015612 55 193 2.0 6.0 0.00 0.00 0.00 90 1016.3
20260507015512 55 262 4.0 4.0 0.00 0.00 0.00 89 1016.3
20260507015412 57 146 2.0 3.0 0.00 0.00 0.00 90 1016.3
20260507015312 57 120 2.0 2.0 0.00 0.00 0.00 89 1016.3
20260507015212 57 120 2.0 2.0 0.00 0.00 0.00 89 1016.3
20260507015112 57 180 3.0 5.0 0.00 0.00 0.00 88 1016.3
20260507015012 57 356 2.0 4.0 0.00 0.00 0.00 88 1016.3
20260507014912 57 183 2.0 6.0 0.00 0.00 0.00 88 1016.3
20260507014812 57 53 2.0 3.0 0.00 0.00 0.00 89 1016.3
20260507014712 57 71 1.0 1.0 0.00 0.00 0.00 89 1016.3
20260507014612 57 58 2.0 4.0 0.00 0.00 0.00 88 1016.3
20260507014512 57 270 2.0 2.0 0.00 0.00 0.00 88 1016.3
20260507014412 57 72 1.0 1.0 0.00 0.00 0.00 87 1016.3
20260507014312 57 28 1.0 3.0 0.00 0.00 0.00 87 1016.3
20260507014212 57 51 2.0 4.0 0.00 0.00 0.00 86 1016.3
20260507014112 57 15 1.0 2.0 0.00 0.00 0.00 86 1016.3
20260507014012 57 192 2.0 3.0 0.00 0.00 0.00 86 1016.3
20260507013912 57 192 2.0 3.0 0.00 0.00 0.00 86 1016.3
20260507013812 57 102 2.0 4.0 0.00 0.00 0.00 85 1016.3
20260507013712 57 4 2.0 3.0 0.00 0.00 0.00 86 1016.3
20260507013612 57 176 2.0 2.0 0.00 0.00 0.00 85 1016.6
20260507013512 57 352 1.0 6.0 0.00 0.00 0.00 86 1016.6
20260507013412 57 167 1.0 3.0 0.00 0.00 0.00 87 1016.6
20260507013312 57 277 2.0 3.0 0.00 0.00 0.00 87 1016.6
20260507013212 57 166 2.0 3.0 0.00 0.00 0.00 87 1016.6
20260507013112 57 13 1.0 2.0 0.00 0.00 0.00 86 1016.6
20260507013012 57 83 2.0 2.0 0.00 0.00 0.00 86 1016.6
20260507012912 57 194 4.0 4.0 0.00 0.00 0.00 86 1016.6
20260507012812 57 144 3.0 5.0 0.00 0.00 0.00 86 1016.6
20260507012712 57 282 3.0 6.0 0.00 0.00 0.00 86 1016.6
20260507012612 57 282 3.0 6.0 0.00 0.00 0.00 86 1016.6
20260507012512 57 90 3.0 4.0 0.00 0.00 0.00 86 1016.6
20260507012412 57 13 2.0 3.0 0.00 0.00 0.00 86 1016.9
20260507012312 57 40 2.0 4.0 0.00 0.00 0.00 85 1016.9
20260507012212 57 11 3.0 4.0 0.00 0.00 0.00 85 1016.9
20260507012112 57 29 2.0 3.0 0.00 0.00 0.00 85 1016.9
20260507012012 57 205 2.0 3.0 0.00 0.00 0.00 85 1016.9
20260507011912 57 186 2.0 4.0 0.00 0.00 0.00 85 1016.9
20260507011812 57 226 4.0 4.0 0.00 0.00 0.00 85 1016.9
20260507011712 57 187 3.0 7.0 0.00 0.00 0.00 85 1016.9
20260507011612 57 107 3.0 3.0 0.00 0.00 0.00 86 1016.9
20260507011512 57 19 2.0 3.0 0.00 0.00 0.00 86 1016.9
20260507011412 57 56 2.0 3.0 0.00 0.00 0.00 86 1016.9
20260507011312 57 56 2.0 3.0 0.00 0.00 0.00 86 1016.9
20260507011212 57 17 2.0 4.0 0.00 0.00 0.00 86 1017.3
20260507011112 57 56 2.0 4.0 0.00 0.00 0.00 86 1017.3
20260507011012 57 0 1.0 3.0 0.00 0.00 0.00 86 1017.3
20260507010912 57 239 1.0 2.0 0.00 0.00 0.00 86 1017.3
20260507010812 57 282 2.0 2.0 0.00 0.00 0.00 86 1017.3
20260507010712 57 199 3.0 4.0 0.00 0.00 0.00 86 1017.3
20260507010612 57 7 1.0 4.0 0.00 0.00 0.00 86 1017.3
20260507010512 57 175 2.0 3.0 0.00 0.00 0.00 87 1017.3
20260507010412 57 81 2.0 3.0 0.00 0.00 0.00 86 1017.3
20260507010312 57 0 2.0 2.0 0.00 0.00 0.00 87 1017.3
20260507010212 57 48 0.0 1.0 0.00 0.00 0.00 87 1017.3
20260507010112 57 9 2.0 4.0 0.00 0.00 0.00 86 1017.3
20260507010012 57 9 2.0 4.0 0.00 0.00 0.00 86 1017.3
20260507005912 57 179 2.0 3.0 0.00 0.00 0.00 86 1017.3
20260507005812 57 164 3.0 3.0 0.00 0.00 0.00 86 1017.3
20260507005712 57 226 1.0 2.0 0.00 0.00 0.00 86 1017.3
20260507005612 57 53 2.0 5.0 0.00 0.00 0.00 86 1017.3
20260507005512 57 174 2.0 2.0 0.00 0.00 0.00 86 1017.3
20260507005412 57 168 1.0 4.0 0.00 0.00 0.00 86 1017.3
20260507005312 57 52 1.0 2.0 0.00 0.00 0.00 87 1017.3
20260507005212 57 12 2.0 3.0 0.00 0.00 0.00 86 1017.3
20260507005112 57 165 2.0 4.0 0.00 0.00 0.00 86 1017.3
20260507005012 57 179 1.0 2.0 0.00 0.00 0.00 86 1017.3
20260507004912 57 11 2.0 3.0 0.00 0.00 0.00 86 1017.3
20260507004812 57 349 1.0 1.0 0.00 0.00 0.00 86 1017.3
20260507004712 57 349 1.0 1.0 0.00 0.00 0.00 86 1017.3
20260507004612 57 35 2.0 3.0 0.00 0.00 0.00 85 1017.3
20260507004512 55 253 2.0 2.0 0.00 0.00 0.00 86 1017.3
20260507004412 55 109 2.0 4.0 0.00 0.00 0.00 88 1017.3
20260507004312 55 184 1.0 1.0 0.00 0.00 0.00 88 1017.3
20260507004212 55 219 2.0 4.0 0.00 0.00 0.00 88 1017.3
20260507004112 55 21 1.0 1.0 0.00 0.00 0.00 89 1017.3
20260507004012 55 27 1.0 1.0 0.00 0.00 0.00 90 1017.3
20260507003912 55 21 1.0 3.0 0.00 0.00 0.00 89 1017.3
20260507003812 55 330 0.0 1.0 0.00 0.00 0.00 91 1017.3
20260507003712 55 17 1.0 1.0 0.00 0.00 0.00 91 1017.3
20260507003612 55 15 0.0 1.0 0.00 0.00 0.00 91 1017.6
20260507003512 55 15 0.0 1.0 0.00 0.00 0.00 91 1017.6
20260507003412 55 7 0.0 1.0 0.00 0.00 0.00 91 1017.6
20260507003312 55 12 0.0 0.0 0.00 0.00 0.00 91 1017.6
20260507003212 55 25 1.0 1.0 0.00 0.00 0.00 91 1017.6
20260507003112 55 3 0.0 0.0 0.00 0.00 0.00 91 1017.6
20260507003012 55 1 0.0 0.0 0.00 0.00 0.00 90 1017.6
20260507002912 55 3 0.0 0.0 0.00 0.00 0.00 90 1017.6
20260507002812 55 2 0.0 1.0 0.00 0.00 0.00 90 1017.6
20260507002712 55 0 0.0 0.0 0.00 0.00 0.00 90 1017.6
20260507002612 55 0 0.0 0.0 0.00 0.00 0.00 90 1017.6
20260507002512 55 3 0.0 0.0 0.00 0.00 0.00 89 1017.6
20260507002412 55 4 0.0 0.0 0.00 0.00 0.00 90 1017.6
20260507002312 55 4 0.0 1.0 0.00 0.00 0.00 90 1017.6
20260507002211 55 4 0.0 1.0 0.00 0.00 0.00 90 1017.6
20260507002112 55 2 0.0 1.0 0.00 0.00 0.00 90 1017.6
20260507002012 55 354 1.0 1.0 0.00 0.00 0.00 90 1017.6
20260507001912 55 5 0.0 1.0 0.00 0.00 0.00 90 1017.6
20260507001812 55 357 1.0 1.0 0.00 0.00 0.00 89 1017.6
20260507001712 55 333 1.0 1.0 0.00 0.00 0.00 89 1017.6
20260507001611 57 0 1.0 1.0 0.00 0.00 0.00 89 1017.6
20260507001512 57 0 1.0 2.0 0.00 0.00 0.00 89 1017.6
20260507001411 57 358 2.0 2.0 0.00 0.00 0.00 90 1017.6
20260507001312 57 0 1.0 1.0 0.00 0.00 0.00 89 1017.6
20260507001212 57 2 1.0 3.0 0.00 0.00 0.00 89 1017.6
20260507001112 57 0 1.0 3.0 0.00 0.00 0.00 88 1017.6
20260507001012 57 1 1.0 2.0 0.00 0.00 0.00 89 1017.6
20260507000911 57 1 1.0 2.0 0.00 0.00 0.00 89 1017.6
20260507000811 57 345 2.0 3.0 0.00 0.00 0.00 89 1017.6
20260507000712 57 337 2.0 2.0 0.00 0.00 0.00 89 1017.6
20260507000611 57 351 3.0 4.0 0.00 0.00 0.00 89 1017.6
20260507000512 57 325 2.0 3.0 0.00 0.00 0.00 88 1017.6
20260507000412 57 358 2.0 4.0 0.00 0.00 0.00 87 1017.6
20260507000313 57 307 2.0 2.0 0.00 0.00 0.00 88 1017.6
20260507000212 57 12 1.0 2.0 0.00 0.00 0.00 88 1017.6
20260507000111 57 4 1.0 1.0 0.00 0.00 0.00 88 1017.6
20260507000011 57 18 0.0 1.0 0.00 0.00 0.00 88 1018.0
20260506235911 57 2 0.0 1.0 0.00 0.00 0.00 87 1018.0
20260506235811 57 2 0.0 1.0 0.00 0.00 0.00 87 1018.0
20260506235711 57 352 2.0 2.0 0.00 0.00 0.00 87 1018.0
20260506235612 57 318 2.0 2.0 0.00 0.00 0.00 88 1018.0
20260506235511 57 303 1.0 2.0 0.00 0.00 0.00 88 1018.0
20260506235411 57 0 1.0 2.0 0.00 0.00 0.00 88 1018.0
20260506235311 57 354 1.0 1.0 0.00 0.00 0.00 88 1018.0
20260506235211 57 358 1.0 2.0 0.00 0.00 0.00 87 1018.0
20260506235111 57 343 1.0 1.0 0.00 0.00 0.00 87 1018.0
20260506235011 57 336 1.0 1.0 0.00 0.00 0.00 88 1018.0
20260506234911 57 1 1.0 1.0 0.00 0.00 0.00 87 1018.0
20260506234812 57 359 1.0 1.0 0.00 0.00 0.00 86 1018.0
20260506234711 57 344 1.0 1.0 0.00 0.00 0.00 85 1018.0
20260506234611 57 350 1.0 1.0 0.00 0.00 0.00 84 1018.0
20260506234511 57 350 1.0 1.0 0.00 0.00 0.00 84 1018.0
20260506234411 57 1 1.0 1.0 0.00 0.00 0.00 84 1018.0
20260506234311 57 3 0.0 1.0 0.00 0.00 0.00 84 1018.0
20260506234211 57 3 1.0 1.0 0.00 0.00 0.00 84 1018.0
20260506234111 57 0 1.0 2.0 0.00 0.00 0.00 84 1018.0
20260506234011 57 358 1.0 1.0 0.00 0.00 0.00 84 1018.0
20260506233911 57 0 1.0 1.0 0.00 0.00 0.00 84 1018.0
20260506233811 57 0 0.0 2.0 0.00 0.00 0.00 83 1018.0
20260506233711 57 3 1.0 1.0 0.00 0.00 0.00 83 1018.0
20260506233611 57 1 1.0 1.0 0.00 0.00 0.00 83 1018.3
20260506233511 57 4 1.0 1.0 0.00 0.00 0.00 83 1018.3
20260506233411 57 2 0.0 1.0 0.00 0.00 0.00 84 1018.3
20260506233311 57 21 2.0 3.0 0.00 0.00 0.00 83 1018.3
20260506233211 57 21 2.0 3.0 0.00 0.00 0.00 83 1018.3
20260506233111 57 19 0.0 0.0 0.00 0.00 0.00 84 1018.3
20260506233011 57 12 0.0 0.0 0.00 0.00 0.00 84 1018.3
20260506232911 57 11 0.0 0.0 0.00 0.00 0.00 84 1018.3
20260506232811 57 8 0.0 0.0 0.00 0.00 0.00 84 1018.3
20260506232711 57 12 0.0 0.0 0.00 0.00 0.00 83 1018.3
20260506232611 57 20 0.0 0.0 0.00 0.00 0.00 83 1018.3
20260506232512 57 25 0.0 1.0 0.00 0.00 0.00 82 1018.3
20260506232411 57 21 0.0 1.0 0.00 0.00 0.00 81 1018.3
20260506232311 57 20 1.0 1.0 0.00 0.00 0.00 83 1018.3
20260506232211 57 19 1.0 1.0 0.00 0.00 0.00 83 1018.3
20260506232111 57 16 0.0 1.0 0.00 0.00 0.00 84 1018.3
20260506232011 57 0 0.0 0.0 0.00 0.00 0.00 86 1018.3
20260506231911 57 0 0.0 0.0 0.00 0.00 0.00 86 1018.3
20260506231811 57 17 0.0 0.0 0.00 0.00 0.00 86 1018.3
20260506231711 57 12 0.0 0.0 0.00 0.00 0.00 86 1018.3
20260506231611 57 9 0.0 0.0 0.00 0.00 0.00 86 1018.3
20260506231511 57 9 0.0 0.0 0.00 0.00 0.00 86 1018.3
20260506231411 57 9 0.0 0.0 0.00 0.00 0.00 86 1018.3
20260506231311 57 9 0.0 0.0 0.00 0.00 0.00 86 1018.3
20260506231211 57 9 0.0 0.0 0.00 0.00 0.00 86 1019.0
20260506231111 57 9 0.0 0.0 0.00 0.00 0.00 86 1019.0
20260506231011 57 9 0.0 0.0 0.00 0.00 0.00 86 1019.0
20260506230911 57 9 0.0 0.0 0.00 0.00 0.00 86 1019.0
20260506230811 57 9 0.0 0.0 0.00 0.00 0.00 86 1019.0
20260506230711 57 9 0.0 0.0 0.00 0.00 0.00 86 1019.0
20260506230611 57 9 0.0 0.0 0.00 0.00 0.00 86 1019.0
20260506230511 57 9 0.0 0.0 0.00 0.00 0.00 86 1019.0
20260506230411 57 9 0.0 0.0 0.00 0.00 0.00 86 1019.0
20260506230311 57 9 0.0 0.0 0.00 0.00 0.00 86 1019.0
20260506230211 57 9 0.0 0.0 0.00 0.00 0.00 86 1019.0
20260506230111 57 9 0.0 0.0 0.00 0.00 0.00 86 1019.0
20260506230011 57 9 0.0 0.0 0.00 0.00 0.00 86 1019.0
20260506225911 57 9 0.0 0.0 0.00 0.00 0.00 86 1019.0
20260506225811 57 9 0.0 0.0 0.00 0.00 0.00 86 1019.0
20260506225711 57 6 0.0 0.0 0.00 0.00 0.00 86 1019.0
20260506225611 57 6 0.0 0.0 0.00 0.00 0.00 86 1019.0
20260506225511 57 6 0.0 0.0 0.00 0.00 0.00 86 1019.0
20260506225411 57 6 0.0 0.0 0.00 0.00 0.00 86 1019.0
20260506225311 57 12 0.0 0.0 0.00 0.00 0.00 86 1019.0
20260506225211 57 12 0.0 0.0 0.00 0.00 0.00 86 1019.0
20260506225111 57 12 0.0 0.0 0.00 0.00 0.00 86 1019.0
20260506225011 57 12 0.0 0.0 0.00 0.00 0.00 86 1019.0
20260506224911 57 12 0.0 0.0 0.00 0.00 0.00 86 1019.0
20260506224811 57 12 0.0 0.0 0.00 0.00 0.00 85 1019.3
20260506224710 57 12 0.0 0.0 0.00 0.00 0.00 86 1019.3
20260506224610 57 12 0.0 0.0 0.00 0.00 0.00 85 1019.3
20260506224510 57 13 0.0 0.0 0.00 0.00 0.00 85 1019.3
20260506224410 57 15 0.0 0.0 0.00 0.00 0.00 85 1019.3
20260506224310 57 11 0.0 0.0 0.00 0.00 0.00 86 1019.3
20260506224211 57 10 0.0 0.0 0.00 0.00 0.00 85 1019.3
20260506224111 57 10 0.0 0.0 0.00 0.00 0.00 85 1019.3
20260506224011 57 5 0.0 0.0 0.00 0.00 0.00 85 1019.3
20260506223911 57 5 0.0 0.0 0.00 0.00 0.00 85 1019.3
20260506223811 57 5 0.0 0.0 0.00 0.00 0.00 85 1019.3
20260506223711 57 5 0.0 0.0 0.00 0.00 0.00 85 1019.3
20260506223611 57 5 0.0 0.0 0.00 0.00 0.00 84 1019.6
20260506223511 57 5 0.0 0.0 0.00 0.00 0.00 84 1019.6
20260506223411 57 5 0.0 0.0 0.00 0.00 0.00 84 1019.6
20260506223311 57 5 0.0 0.0 0.00 0.00 0.00 84 1019.6
20260506223211 57 4 0.0 0.0 0.00 0.00 0.00 84 1019.6
20260506223111 57 4 0.0 0.0 0.00 0.00 0.00 84 1019.6
20260506223012 57 4 0.0 0.0 0.00 0.00 0.00 84 1019.6
20260506222911 57 4 0.0 0.0 0.00 0.00 0.00 84 1019.6
20260506222811 57 4 0.0 0.0 0.00 0.00 0.00 84 1019.6
20260506222711 57 4 0.0 0.0 0.00 0.00 0.00 83 1019.6
20260506222611 57 2 0.0 1.0 0.00 0.00 0.00 83 1019.6
20260506222511 57 3 0.0 1.0 0.00 0.00 0.00 82 1019.6
20260506222411 57 4 0.0 0.0 0.00 0.00 0.00 82 1019.6
20260506222311 57 347 0.0 1.0 0.00 0.00 0.00 83 1019.6
20260506222211 57 350 0.0 0.0 0.00 0.00 0.00 84 1019.6
20260506222111 57 2 0.0 0.0 0.00 0.00 0.00 83 1019.6
20260506222011 57 7 0.0 0.0 0.00 0.00 0.00 83 1019.6
20260506221911 57 6 0.0 0.0 0.00 0.00 0.00 83 1019.6
20260506221811 57 4 0.0 1.0 0.00 0.00 0.00 83 1019.6
20260506221711 57 3 1.0 1.0 0.00 0.00 0.00 82 1019.6
20260506221611 57 4 0.0 0.0 0.00 0.00 0.00 82 1019.6
20260506221511 57 4 0.0 0.0 0.00 0.00 0.00 82 1019.6
20260506221411 57 8 0.0 0.0 0.00 0.00 0.00 82 1019.6
20260506221311 57 20 0.0 1.0 0.00 0.00 0.00 82 1019.6
20260506221211 57 19 0.0 0.0 0.00 0.00 0.00 82 1019.6
20260506221111 57 5 0.0 1.0 0.00 0.00 0.00 81 1019.6
20260506221011 57 0 0.0 0.0 0.00 0.00 0.00 80 1019.6
20260506220911 57 7 1.0 1.0 0.00 0.00 0.00 80 1019.6
20260506220811 57 4 1.0 1.0 0.00 0.00 0.00 79 1019.6
20260506220711 57 31 1.0 1.0 0.00 0.00 0.00 78 1019.6
20260506220611 57 3 1.0 1.0 0.00 0.00 0.00 77 1019.6
20260506220511 57 4 2.0 2.0 0.00 0.00 0.00 77 1019.6
20260506220411 57 1 0.0 1.0 0.00 0.00 0.00 77 1019.6
20260506220311 57 357 1.0 2.0 0.00 0.00 0.00 77 1019.6
20260506220210 57 357 1.0 2.0 0.00 0.00 0.00 77 1019.6
20260506220110 57 5 1.0 1.0 0.00 0.00 0.00 78 1019.6
20260506220010 57 0 1.0 1.0 0.00 0.00 0.00 78 1020.0
20260506215910 57 354 1.0 2.0 0.00 0.00 0.00 77 1020.0
20260506215810 57 0 1.0 1.0 0.00 0.00 0.00 77 1020.0
20260506215711 57 4 1.0 1.0 0.00 0.00 0.00 77 1020.0
20260506215611 57 352 1.0 1.0 0.00 0.00 0.00 77 1020.0
20260506215511 57 5 0.0 0.0 0.00 0.00 0.00 77 1020.0
20260506215411 57 3 1.0 1.0 0.00 0.00 0.00 77 1020.0
20260506215311 57 8 0.0 0.0 0.00 0.00 0.00 78 1020.0
20260506215210 57 5 0.0 1.0 0.00 0.00 0.00 77 1020.0
20260506215110 57 4 0.0 1.0 0.00 0.00 0.00 77 1020.0
20260506215010 57 3 0.0 1.0 0.00 0.00 0.00 76 1020.0
20260506214910 57 3 0.0 1.0 0.00 0.00 0.00 76 1020.0
20260506214810 57 6 1.0 1.0 0.00 0.00 0.00 76 1020.0
20260506214710 57 358 1.0 1.0 0.00 0.00 0.00 76 1020.0
20260506214610 57 5 0.0 1.0 0.00 0.00 0.00 75 1020.0
20260506214510 57 0 1.0 2.0 0.00 0.00 0.00 75 1020.0
20260506214410 57 4 1.0 1.0 0.00 0.00 0.00 76 1020.0
20260506214310 57 0 1.0 1.0 0.00 0.00 0.00 76 1020.0
20260506214210 57 4 0.0 1.0 0.00 0.00 0.00 76 1020.0
20260506214110 57 0 1.0 1.0 0.00 0.00 0.00 76 1020.0
20260506214010 57 5 0.0 1.0 0.00 0.00 0.00 75 1020.0
20260506213910 59 4 1.0 1.0 0.00 0.00 0.00 75 1020.0
20260506213810 59 5 1.0 1.0 0.00 0.00 0.00 75 1020.0
20260506213710 59 0 1.0 2.0 0.00 0.00 0.00 75 1020.0
20260506213610 59 0 1.0 2.0 0.00 0.00 0.00 75 1020.0
20260506213510 59 2 1.0 1.0 0.00 0.00 0.00 74 1020.0
20260506213410 59 5 2.0 5.0 0.00 0.00 0.00 73 1020.0
20260506213310 59 0 1.0 2.0 0.00 0.00 0.00 72 1020.0
20260506213210 59 0 1.0 2.0 0.00 0.00 0.00 71 1020.0
20260506213110 59 0 1.0 1.0 0.00 0.00 0.00 71 1020.0
20260506213010 59 4 1.0 1.0 0.00 0.00 0.00 70 1020.0
20260506212910 59 359 1.0 1.0 0.00 0.00 0.00 69 1020.0
20260506212810 59 358 1.0 1.0 0.00 0.00 0.00 69 1020.0
20260506212710 59 4 1.0 1.0 0.00 0.00 0.00 68 1020.0
20260506212610 59 7 2.0 3.0 0.00 0.00 0.00 68 1020.0
20260506212510 59 359 2.0 3.0 0.00 0.00 0.00 68 1020.0
20260506212410 59 0 2.0 4.0 0.00 0.00 0.00 67 1020.0
20260506212310 59 0 2.0 4.0 0.00 0.00 0.00 67 1020.0
20260506212210 59 359 0.0 1.0 0.00 0.00 0.00 68 1020.0
20260506212110 59 5 0.0 1.0 0.00 0.00 0.00 67 1020.0
20260506212010 59 324 1.0 1.0 0.00 0.00 0.00 67 1020.0
20260506211910 59 353 1.0 1.0 0.00 0.00 0.00 66 1020.0
20260506211810 59 356 1.0 1.0 0.00 0.00 0.00 66 1020.0
20260506211710 59 356 1.0 1.0 0.00 0.00 0.00 66 1020.0
20260506211610 59 1 1.0 2.0 0.00 0.00 0.00 66 1020.0
20260506211510 59 6 1.0 1.0 0.00 0.00 0.00 65 1020.0
20260506211410 59 330 1.0 2.0 0.00 0.00 0.00 66 1020.0
20260506211310 59 2 1.0 1.0 0.00 0.00 0.00 68 1020.0
20260506211210 59 4 1.0 1.0 0.00 0.00 0.00 67 1020.0
20260506211110 59 358 0.0 2.0 0.00 0.00 0.00 67 1020.0
20260506211010 59 358 0.0 2.0 0.00 0.00 0.00 67 1020.0
20260506210910 59 4 0.0 1.0 0.00 0.00 0.00 67 1020.0
20260506210810 59 3 1.0 1.0 0.00 0.00 0.00 67 1020.0
20260506210710 59 2 0.0 0.0 0.00 0.00 0.00 67 1020.0
20260506210610 59 4 1.0 1.0 0.00 0.00 0.00 67 1020.0
20260506210510 59 2 0.0 1.0 0.00 0.00 0.00 67 1020.0
20260506210410 59 2 1.0 1.0 0.00 0.00 0.00 67 1020.0
20260506210310 59 9 0.0 0.0 0.00 0.00 0.00 67 1020.0
20260506210210 59 6 0.0 0.0 0.00 0.00 0.00 67 1020.0
20260506210110 59 3 0.0 1.0 0.00 0.00 0.00 67 1020.0
20260506210010 59 3 0.0 1.0 0.00 0.00 0.00 67 1020.0
20260506205910 59 0 0.0 0.0 0.00 0.00 0.00 66 1020.0
20260506205810 59 0 0.0 1.0 0.00 0.00 0.00 67 1020.0
20260506205710 59 6 0.0 1.0 0.00 0.00 0.00 67 1020.0
20260506205610 59 5 0.0 0.0 0.00 0.00 0.00 67 1020.0
20260506205510 59 5 0.0 0.0 0.00 0.00 0.00 67 1020.0
20260506205410 59 6 0.0 0.0 0.00 0.00 0.00 67 1020.0
20260506205310 59 5 0.0 0.0 0.00 0.00 0.00 67 1020.0
20260506205210 59 1 1.0 1.0 0.00 0.00 0.00 67 1020.0
20260506205110 59 4 0.0 0.0 0.00 0.00 0.00 67 1020.0
20260506205010 59 4 1.0 1.0 0.00 0.00 0.00 67 1020.0
20260506204910 59 3 0.0 0.0 0.00 0.00 0.00 67 1020.0
20260506204810 59 3 0.0 0.0 0.00 0.00 0.00 67 1020.0
20260506204710 59 1 0.0 1.0 0.00 0.00 0.00 67 1020.0
20260506204610 59 4 0.0 0.0 0.00 0.00 0.00 66 1020.0
20260506204510 59 9 0.0 0.0 0.00 0.00 0.00 66 1020.0
20260506204410 59 327 1.0 1.0 0.00 0.00 0.00 66 1020.0
20260506204310 59 327 1.0 1.0 0.00 0.00 0.00 66 1020.0
20260506204210 59 1 1.0 1.0 0.00 0.00 0.00 66 1020.0
20260506204110 59 359 0.0 1.0 0.00 0.00 0.00 67 1020.0
20260506204010 59 2 0.0 0.0 0.00 0.00 0.00 67 1020.0
20260506203910 59 6 0.0 0.0 0.00 0.00 0.00 68 1020.0
20260506203810 59 4 0.0 1.0 0.00 0.00 0.00 67 1020.0
20260506203711 59 4 0.0 1.0 0.00 0.00 0.00 67 1020.0
20260506203610 59 3 1.0 1.0 0.00 0.00 0.00 67 1020.0
20260506203510 59 0 0.0 1.0 0.00 0.00 0.00 67 1020.0
20260506203410 59 1 0.0 1.0 0.00 0.00 0.00 67 1020.0
20260506203310 59 4 0.0 0.0 0.00 0.00 0.00 67 1020.0
20260506203210 59 4 0.0 0.0 0.00 0.00 0.00 67 1020.0
20260506203110 59 4 0.0 0.0 0.00 0.00 0.00 67 1020.0
20260506203010 59 2 1.0 1.0 0.00 0.00 0.00 67 1020.0
20260506202910 59 359 0.0 1.0 0.00 0.00 0.00 67 1020.0
20260506202810 59 357 1.0 1.0 0.00 0.00 0.00 67 1020.0
20260506202710 59 356 1.0 2.0 0.00 0.00 0.00 67 1020.0
20260506202610 59 356 1.0 2.0 0.00 0.00 0.00 67 1020.0
20260506202510 59 5 0.0 1.0 0.00 0.00 0.00 67 1020.0
20260506202410 59 0 1.0 1.0 0.00 0.00 0.00 68 1020.0
20260506202310 59 2 0.0 1.0 0.00 0.00 0.00 68 1020.0
20260506202210 59 7 1.0 1.0 0.00 0.00 0.00 67 1020.0
20260506202110 59 6 1.0 1.0 0.00 0.00 0.00 67 1020.0
20260506202010 59 3 1.0 1.0 0.00 0.00 0.00 67 1020.0
20260506201910 59 3 1.0 1.0 0.00 0.00 0.00 67 1020.0
20260506201810 59 321 0.0 1.0 0.00 0.00 0.00 67 1020.0
20260506201710 59 7 0.0 0.0 0.00 0.00 0.00 67 1020.0
20260506201610 59 3 0.0 1.0 0.00 0.00 0.00 67 1020.0
20260506201510 59 352 2.0 2.0 0.00 0.00 0.00 66 1020.0
20260506201410 59 2 0.0 1.0 0.00 0.00 0.00 67 1020.0
20260506201310 59 2 0.0 1.0 0.00 0.00 0.00 67 1020.0
20260506201210 59 3 0.0 1.0 0.00 0.00 0.00 67 1020.0
20260506201110 59 5 1.0 1.0 0.00 0.00 0.00 66 1020.0
20260506201010 59 2 0.0 0.0 0.00 0.00 0.00 66 1020.0
20260506200910 59 4 1.0 1.0 0.00 0.00 0.00 66 1020.0
20260506200810 59 5 1.0 1.0 0.00 0.00 0.00 66 1020.0
20260506200710 59 5 1.0 1.0 0.00 0.00 0.00 66 1020.0
20260506200610 59 0 1.0 2.0 0.00 0.00 0.00 66 1020.0
20260506200510 59 3 1.0 1.0 0.00 0.00 0.00 66 1020.0
20260506200410 59 1 1.0 1.0 0.00 0.00 0.00 66 1020.0
20260506200310 59 356 1.0 2.0 0.00 0.00 0.00 66 1020.0
20260506200210 59 356 1.0 2.0 0.00 0.00 0.00 66 1020.0
20260506200110 59 3 0.0 1.0 0.00 0.00 0.00 66 1020.0
20260506200010 59 310 1.0 1.0 0.00 0.00 0.00 65 1020.0
20260506195910 59 2 1.0 1.0 0.00 0.00 0.00 65 1020.0
20260506195810 59 350 1.0 2.0 0.00 0.00 0.00 65 1020.0
20260506195710 59 358 1.0 1.0 0.00 0.00 0.00 65 1020.0
20260506195610 59 2 1.0 1.0 0.00 0.00 0.00 65 1020.0
20260506195510 59 2 1.0 1.0 0.00 0.00 0.00 65 1020.0
20260506195410 59 4 1.0 2.0 0.00 0.00 0.00 65 1020.0
20260506195310 59 1 1.0 1.0 0.00 0.00 0.00 64 1020.0
20260506195210 59 354 1.0 1.0 0.00 0.00 0.00 64 1020.0
20260506195110 59 6 1.0 1.0 0.00 0.00 0.00 64 1020.0
20260506195010 59 359 1.0 1.0 0.00 0.00 0.00 64 1020.0
20260506194910 59 358 1.0 1.0 0.00 0.00 0.00 65 1020.0
20260506194810 59 0 1.0 1.0 0.00 0.00 0.00 64 1020.0
20260506194710 59 0 1.0 1.0 0.00 0.00 0.00 64 1020.0
20260506194610 59 1 1.0 2.0 0.00 0.00 0.00 64 1020.0
20260506194510 59 0 1.0 1.0 0.00 0.00 0.00 64 1020.0
20260506194410 59 8 1.0 2.0 0.00 0.00 0.00 65 1020.0
20260506194310 59 347 1.0 1.0 0.00 0.00 0.00 65 1020.0
20260506194210 59 347 1.0 1.0 0.00 0.00 0.00 65 1020.0
20260506194110 59 343 1.0 1.0 0.00 0.00 0.00 64 1020.0
20260506194010 59 4 1.0 1.0 0.00 0.00 0.00 65 1020.0
20260506193910 59 4 0.0 1.0 0.00 0.00 0.00 64 1020.0
20260506193810 59 6 1.0 1.0 0.00 0.00 0.00 64 1020.0
20260506193710 59 335 1.0 1.0 0.00 0.00 0.00 63 1020.0
20260506193610 59 3 1.0 1.0 0.00 0.00 0.00 63 1020.3
20260506193510 59 1 1.0 2.0 0.00 0.00 0.00 64 1020.3
20260506193410 59 6 0.0 1.0 0.00 0.00 0.00 64 1020.3
20260506193310 59 6 0.0 1.0 0.00 0.00 0.00 64 1020.3
20260506193210 59 0 1.0 1.0 0.00 0.00 0.00 64 1020.3
20260506193110 59 357 1.0 1.0 0.00 0.00 0.00 64 1020.3
20260506193010 59 9 1.0 1.0 0.00 0.00 0.00 64 1020.3
20260506192910 59 358 1.0 1.0 0.00 0.00 0.00 66 1020.3
20260506192810 59 358 1.0 1.0 0.00 0.00 0.00 66 1020.3
20260506192710 59 5 0.0 1.0 0.00 0.00 0.00 66 1020.3
20260506192610 59 337 1.0 1.0 0.00 0.00 0.00 65 1020.3
20260506192510 59 2 1.0 2.0 0.00 0.00 0.00 65 1020.3
20260506192410 61 7 0.0 1.0 0.00 0.00 0.00 66 1020.3
20260506192310 59 0 1.0 1.0 0.00 0.00 0.00 66 1020.3
20260506192210 59 0 1.0 1.0 0.00 0.00 0.00 66 1020.3
20260506192110 59 4 1.0 1.0 0.00 0.00 0.00 66 1020.3
20260506192010 59 3 1.0 1.0 0.00 0.00 0.00 66 1020.3
20260506191910 59 3 0.0 1.0 0.00 0.00 0.00 65 1020.3
20260506191810 59 356 0.0 1.0 0.00 0.00 0.00 65 1020.3
20260506191710 59 4 0.0 0.0 0.00 0.00 0.00 65 1020.3
20260506191610 59 4 1.0 1.0 0.00 0.00 0.00 65 1020.3
20260506191510 59 357 1.0 1.0 0.00 0.00 0.00 65 1020.3
20260506191410 59 358 1.0 1.0 0.00 0.00 0.00 65 1020.3
20260506191310 59 336 1.0 2.0 0.00 0.00 0.00 64 1020.3
20260506191210 59 5 1.0 1.0 0.00 0.00 0.00 64 1020.3
20260506191110 59 5 1.0 1.0 0.00 0.00 0.00 64 1020.3
20260506191010 59 3 1.0 1.0 0.00 0.00 0.00 63 1020.3
20260506190910 59 347 1.0 2.0 0.00 0.00 0.00 63 1020.3
20260506190810 61 3 1.0 1.0 0.00 0.00 0.00 63 1020.3
20260506190710 59 7 1.0 1.0 0.00 0.00 0.00 63 1020.3
20260506190610 61 354 1.0 1.0 0.00 0.00 0.00 63 1020.3
20260506190510 61 5 0.0 1.0 0.00 0.00 0.00 64 1020.3
20260506190410 61 3 0.0 0.0 0.00 0.00 0.00 64 1020.3
20260506190310 61 353 1.0 1.0 0.00 0.00 0.00 64 1020.3
20260506190210 61 353 1.0 1.0 0.00 0.00 0.00 64 1020.3
20260506190110 61 3 1.0 1.0 0.00 0.00 0.00 63 1020.3
20260506190010 61 2 1.0 1.0 0.00 0.00 0.00 63 1020.3
20260506185910 61 354 1.0 1.0 0.00 0.00 0.00 63 1020.3
20260506185810 61 335 1.0 1.0 0.00 0.00 0.00 62 1020.3
20260506185711 61 359 0.0 1.0 0.00 0.00 0.00 63 1020.3
20260506185610 61 1 1.0 1.0 0.00 0.00 0.00 63 1020.3
20260506185510 61 3 1.0 2.0 0.00 0.00 0.00 63 1020.3
20260506185410 61 3 1.0 1.0 0.00 0.00 0.00 62 1020.3
20260506185310 61 7 1.0 1.0 0.00 0.00 0.00 62 1020.3
20260506185210 61 6 1.0 2.0 0.00 0.00 0.00 63 1020.3
20260506185110 61 6 1.0 2.0 0.00 0.00 0.00 63 1020.3
20260506185011 61 336 1.0 1.0 0.00 0.00 0.00 62 1020.3
20260506184910 61 0 1.0 1.0 0.00 0.00 0.00 63 1020.3
20260506184810 61 2 1.0 1.0 0.00 0.00 0.00 63 1020.3
20260506184710 61 357 1.0 2.0 0.00 0.00 0.00 62 1020.3
20260506184610 61 9 1.0 1.0 0.00 0.00 0.00 61 1020.3
20260506184510 61 357 1.0 2.0 0.00 0.00 0.00 61 1020.3
20260506184410 61 356 0.0 1.0 0.00 0.00 0.00 61 1020.3
20260506184310 61 328 1.0 1.0 0.00 0.00 0.00 61 1020.3
20260506184210 61 335 1.0 1.0 0.00 0.00 0.00 60 1020.3
20260506184110 61 14 1.0 1.0 0.00 0.00 0.00 60 1020.3
20260506184010 61 312 1.0 1.0 0.00 0.00 0.00 60 1020.3
20260506183910 61 312 1.0 1.0 0.00 0.00 0.00 60 1020.3
20260506183810 61 2 1.0 1.0 0.00 0.00 0.00 61 1020.3
20260506183710 61 0 0.0 1.0 0.00 0.00 0.00 61 1020.3
20260506183610 61 6 1.0 1.0 0.00 0.00 0.00 62 1020.7
20260506183510 61 4 0.0 1.0 0.00 0.00 0.00 62 1020.7
20260506183410 61 9 0.0 1.0 0.00 0.00 0.00 62 1020.7
20260506183310 61 347 0.0 1.0 0.00 0.00 0.00 62 1020.7
20260506183210 61 1 0.0 1.0 0.00 0.00 0.00 62 1020.7
20260506183110 61 2 0.0 1.0 0.00 0.00 0.00 63 1020.7
20260506183010 61 1 0.0 1.0 0.00 0.00 0.00 62 1020.7
20260506182910 61 4 0.0 1.0 0.00 0.00 0.00 62 1020.7
20260506182810 61 0 1.0 1.0 0.00 0.00 0.00 62 1020.7
20260506182710 61 352 0.0 1.0 0.00 0.00 0.00 62 1020.7
20260506182610 61 352 0.0 1.0 0.00 0.00 0.00 62 1020.7
20260506182510 61 345 0.0 1.0 0.00 0.00 0.00 62 1020.7
20260506182410 61 0 0.0 1.0 0.00 0.00 0.00 62 1021.0
20260506182310 61 4 1.0 1.0 0.00 0.00 0.00 61 1021.0
20260506182210 61 5 0.0 1.0 0.00 0.00 0.00 62 1021.0
20260506182110 61 11 0.0 1.0 0.00 0.00 0.00 62 1021.0
20260506182010 61 4 0.0 1.0 0.00 0.00 0.00 62 1021.0
20260506181910 61 4 0.0 0.0 0.00 0.00 0.00 61 1021.0
20260506181810 61 4 0.0 1.0 0.00 0.00 0.00 61 1021.0
20260506181710 61 7 0.0 0.0 0.00 0.00 0.00 61 1021.0
20260506181610 61 5 0.0 1.0 0.00 0.00 0.00 61 1021.0
20260506181510 61 1 1.0 1.0 0.00 0.00 0.00 61 1021.0
20260506181410 61 3 1.0 1.0 0.00 0.00 0.00 62 1021.0
20260506181310 61 3 1.0 1.0 0.00 0.00 0.00 62 1021.0
20260506181210 61 0 1.0 1.0 0.00 0.00 0.00 61 1021.0
20260506181110 61 9 1.0 1.0 0.00 0.00 0.00 61 1021.0
20260506181010 61 4 1.0 1.0 0.00 0.00 0.00 60 1021.0
20260506180910 61 3 2.0 2.0 0.00 0.00 0.00 60 1021.0
20260506180810 61 357 1.0 1.0 0.00 0.00 0.00 60 1021.0
20260506180710 61 2 1.0 1.0 0.00 0.00 0.00 59 1021.0
20260506180610 61 1 1.0 1.0 0.00 0.00 0.00 59 1021.0
20260506180510 61 348 0.0 1.0 0.00 0.00 0.00 59 1021.0
20260506180410 61 7 1.0 1.0 0.00 0.00 0.00 59 1021.0
20260506180310 61 5 1.0 1.0 0.00 0.00 0.00 58 1021.0
20260506180210 61 357 1.0 3.0 0.00 0.00 0.00 58 1021.0
20260506180110 61 356 1.0 1.0 0.00 0.00 0.00 57 1021.0
20260506180010 61 356 1.0 1.0 0.00 0.00 0.00 57 1021.0
20260506175910 61 11 1.0 1.0 0.00 0.00 0.00 59 1021.0
20260506175810 61 9 0.0 1.0 0.00 0.00 0.00 60 1021.0
20260506175710 61 1 1.0 1.0 0.00 0.00 0.00 60 1021.0
20260506175610 61 4 1.0 2.0 0.00 0.00 0.00 59 1021.0
20260506175510 61 166 2.0 2.0 0.00 0.00 0.00 59 1021.0
20260506175410 61 1 1.0 1.0 0.00 0.00 0.00 59 1021.0
20260506175310 61 359 1.0 2.0 0.00 0.00 0.00 58 1021.0
20260506175210 61 359 1.0 1.0 0.00 0.00 0.00 57 1021.0
20260506175110 61 6 1.0 2.0 0.00 0.00 0.00 58 1021.0
20260506175010 61 5 1.0 1.0 0.00 0.00 0.00 59 1021.0
20260506174910 61 0 0.0 1.0 0.00 0.00 0.00 60 1021.0
20260506174810 61 280 1.0 2.0 0.00 0.00 0.00 60 1021.7
20260506174710 61 280 1.0 2.0 0.00 0.00 0.00 60 1021.7
20260506174610 61 341 2.0 4.0 0.00 0.00 0.00 61 1021.7
20260506174510 61 358 1.0 1.0 0.00 0.00 0.00 62 1021.7
20260506174410 63 354 1.0 2.0 0.00 0.00 0.00 62 1021.7
20260506174310 63 328 1.0 1.0 0.00 0.00 0.00 62 1021.7
20260506174210 61 8 1.0 1.0 0.00 0.00 0.00 61 1021.7
20260506174110 63 331 2.0 2.0 0.00 0.00 0.00 61 1021.7
20260506174010 63 3 1.0 1.0 0.00 0.00 0.00 61 1021.7
20260506173910 63 3 0.0 1.0 0.00 0.00 0.00 61 1021.7
20260506173810 63 230 1.0 1.0 0.00 0.00 0.00 60 1021.7
20260506173710 63 359 0.0 1.0 0.00 0.00 0.00 60 1021.7
20260506173610 63 6 1.0 1.0 0.00 0.00 0.00 60 1022.0
20260506173510 63 0 1.0 1.0 0.00 0.00 0.00 60 1022.0
20260506173410 63 0 1.0 1.0 0.00 0.00 0.00 60 1022.0
20260506173310 63 1 0.0 1.0 0.00 0.00 0.00 58 1022.0
20260506173210 63 4 1.0 1.0 0.00 0.00 0.00 59 1022.0
20260506173110 63 1 2.0 4.0 0.00 0.00 0.00 61 1022.0
20260506173010 63 203 4.0 4.0 0.00 0.00 0.00 60 1022.0
20260506172910 63 3 0.0 0.0 0.00 0.00 0.00 58 1022.0
20260506172810 63 2 0.0 1.0 0.00 0.00 0.00 58 1022.0
20260506172710 63 5 0.0 1.0 0.00 0.00 0.00 57 1022.0
20260506172610 63 0 0.0 1.0 0.00 0.00 0.00 57 1022.0
20260506172510 63 5 0.0 0.0 0.00 0.00 0.00 55 1022.0
20260506172410 63 5 0.0 0.0 0.00 0.00 0.00 56 1022.0
20260506172310 63 6 0.0 0.0 0.00 0.00 0.00 56 1022.0
20260506172210 63 6 0.0 0.0 0.00 0.00 0.00 56 1022.0
20260506172110 63 6 0.0 0.0 0.00 0.00 0.00 56 1022.0
20260506172010 63 6 0.0 0.0 0.00 0.00 0.00 57 1022.0
20260506171910 63 5 0.0 0.0 0.00 0.00 0.00 57 1022.0
20260506171810 63 6 0.0 0.0 0.00 0.00 0.00 57 1022.0
20260506171710 63 5 0.0 0.0 0.00 0.00 0.00 56 1022.0
20260506171610 63 5 0.0 0.0 0.00 0.00 0.00 57 1022.0
20260506171510 63 4 0.0 0.0 0.00 0.00 0.00 57 1022.0
20260506171410 63 0 0.0 0.0 0.00 0.00 0.00 57 1022.0
20260506171310 63 12 0.0 1.0 0.00 0.00 0.00 58 1022.0
20260506171210 63 354 1.0 2.0 0.00 0.00 0.00 56 1022.0
20260506171110 63 5 0.0 1.0 0.00 0.00 0.00 55 1022.0
20260506171010 63 357 1.0 1.0 0.00 0.00 0.00 56 1022.0
20260506170910 63 5 0.0 0.0 0.00 0.00 0.00 56 1022.0
20260506170810 63 5 0.0 0.0 0.00 0.00 0.00 56 1022.0
20260506170710 63 5 0.0 0.0 0.00 0.00 0.00 56 1022.0
20260506170610 63 6 0.0 1.0 0.00 0.00 0.00 57 1022.0
20260506170510 63 8 0.0 0.0 0.00 0.00 0.00 57 1022.0
20260506170410 63 7 1.0 1.0 0.00 0.00 0.00 57 1022.0
20260506170310 63 7 0.0 0.0 0.00 0.00 0.00 58 1022.0
20260506170210 63 4 1.0 1.0 0.00 0.00 0.00 58 1022.0
20260506170110 63 0 1.0 1.0 0.00 0.00 0.00 58 1022.0
20260506170011 63 6 1.0 1.0 0.00 0.00 0.00 58 1022.0
20260506165910 63 310 1.0 1.0 0.00 0.00 0.00 58 1022.0
20260506165810 63 4 0.0 1.0 0.00 0.00 0.00 57 1022.0
20260506165710 63 4 1.0 1.0 0.00 0.00 0.00 57 1022.0
20260506165610 63 13 2.0 2.0 0.00 0.00 0.00 58 1022.0
20260506165510 63 13 2.0 2.0 0.00 0.00 0.00 58 1022.0
20260506165410 63 359 1.0 4.0 0.00 0.00 0.00 58 1022.0
20260506165310 63 4 0.0 1.0 0.00 0.00 0.00 57 1022.0
20260506165210 63 5 0.0 0.0 0.00 0.00 0.00 57 1022.0
20260506165110 63 6 0.0 0.0 0.00 0.00 0.00 57 1022.0
20260506165010 63 4 0.0 1.0 0.00 0.00 0.00 57 1022.0
20260506164910 63 5 0.0 0.0 0.00 0.00 0.00 58 1022.0
20260506164810 63 3 0.0 1.0 0.00 0.00 0.00 58 1022.0
20260506164710 63 9 1.0 1.0 0.00 0.00 0.00 58 1022.0
20260506164610 63 6 0.0 1.0 0.00 0.00 0.00 59 1022.0
20260506164510 63 301 1.0 1.0 0.00 0.00 0.00 59 1022.0
20260506164410 63 6 1.0 4.0 0.00 0.00 0.00 59 1022.0
20260506164310 63 280 2.0 4.0 0.00 0.00 0.00 59 1022.0
20260506164210 63 280 2.0 4.0 0.00 0.00 0.00 59 1022.0
20260506164110 63 49 0.0 1.0 0.00 0.00 0.00 60 1022.0
20260506164010 63 6 0.0 0.0 0.00 0.00 0.00 60 1022.0
20260506163910 63 90 1.0 1.0 0.00 0.00 0.00 60 1022.0
20260506163810 63 355 1.0 1.0 0.00 0.00 0.00 60 1022.0
20260506163710 63 8 1.0 2.0 0.00 0.00 0.00 60 1022.0
20260506163610 63 54 1.0 1.0 0.00 0.00 0.00 59 1022.0
20260506163510 63 1 1.0 2.0 0.00 0.00 0.00 59 1022.0
20260506163410 63 334 1.0 2.0 0.00 0.00 0.00 58 1022.0
20260506163310 63 2 1.0 1.0 0.00 0.00 0.00 58 1022.0
20260506163210 63 42 1.0 1.0 0.00 0.00 0.00 58 1022.0
20260506163110 63 36 1.0 2.0 0.00 0.00 0.00 57 1022.0
20260506163010 63 353 1.0 2.0 0.00 0.00 0.00 57 1022.0
20260506162910 63 353 1.0 2.0 0.00 0.00 0.00 57 1022.0
20260506162810 63 10 1.0 1.0 0.00 0.00 0.00 57 1022.0
20260506162710 63 15 1.0 3.0 0.00 0.00 0.00 58 1022.0
20260506162610 63 12 2.0 3.0 0.00 0.00 0.00 57 1022.0
20260506162510 64 42 1.0 2.0 0.00 0.00 0.00 56 1022.0
20260506162410 64 19 1.0 1.0 0.00 0.00 0.00 56 1022.0
20260506162310 64 23 1.0 1.0 0.00 0.00 0.00 57 1022.0
20260506162210 64 54 1.0 1.0 0.00 0.00 0.00 56 1022.0
20260506162110 64 13 1.0 1.0 0.00 0.00 0.00 56 1022.0
20260506162010 64 57 1.0 1.0 0.00 0.00 0.00 56 1022.0
20260506161910 64 356 1.0 1.0 0.00 0.00 0.00 56 1022.0
20260506161810 64 6 0.0 1.0 0.00 0.00 0.00 56 1022.0
20260506161710 64 4 0.0 1.0 0.00 0.00 0.00 56 1022.0
20260506161610 64 4 0.0 1.0 0.00 0.00 0.00 56 1022.0
20260506161510 64 33 1.0 1.0 0.00 0.00 0.00 56 1022.0
20260506161410 64 359 2.0 3.0 0.00 0.00 0.00 56 1022.0
20260506161310 64 29 1.0 1.0 0.00 0.00 0.00 55 1022.0
20260506161210 64 354 1.0 1.0 0.00 0.00 0.00 55 1022.0
20260506161110 64 10 0.0 1.0 0.00 0.00 0.00 56 1022.0
20260506161010 64 40 1.0 1.0 0.00 0.00 0.00 56 1022.0
20260506160910 64 8 0.0 1.0 0.00 0.00 0.00 56 1022.0
20260506160810 64 5 1.0 1.0 0.00 0.00 0.00 56 1022.0
20260506160710 64 359 0.0 1.0 0.00 0.00 0.00 56 1022.0
20260506160610 63 5 1.0 2.0 0.00 0.00 0.00 55 1022.0
20260506160510 64 354 1.0 1.0 0.00 0.00 0.00 55 1022.0
20260506160410 63 5 1.0 1.0 0.00 0.00 0.00 56 1022.0
20260506160310 63 5 1.0 1.0 0.00 0.00 0.00 56 1022.0
20260506160210 63 331 1.0 1.0 0.00 0.00 0.00 56 1022.0
20260506160110 63 334 1.0 1.0 0.00 0.00 0.00 55 1022.0
20260506160010 63 3 1.0 1.0 0.00 0.00 0.00 55 1022.4
20260506155910 63 359 0.0 1.0 0.00 0.00 0.00 54 1022.4
20260506155810 63 0 1.0 2.0 0.00 0.00 0.00 55 1022.4
20260506155710 63 338 1.0 2.0 0.00 0.00 0.00 56 1022.4
20260506155610 63 3 1.0 2.0 0.00 0.00 0.00 56 1022.4
20260506155510 63 5 1.0 2.0 0.00 0.00 0.00 57 1022.4
20260506155410 63 315 1.0 1.0 0.00 0.00 0.00 56 1022.4
20260506155310 63 357 1.0 1.0 0.00 0.00 0.00 56 1022.4
20260506155210 64 359 1.0 1.0 0.00 0.00 0.00 56 1022.4
20260506155110 64 95 1.0 2.0 0.00 0.00 0.00 56 1022.4
20260506155010 64 95 1.0 2.0 0.00 0.00 0.00 56 1022.4
20260506154910 64 0 1.0 1.0 0.00 0.00 0.00 55 1022.4
20260506154810 63 1 1.0 1.0 0.00 0.00 0.00 54 1022.7
20260506154710 64 358 1.0 1.0 0.00 0.00 0.00 54 1022.7
20260506154610 64 198 2.0 3.0 0.00 0.00 0.00 54 1022.7
20260506154510 64 33 0.0 1.0 0.00 0.00 0.00 54 1022.7
20260506154410 64 328 1.0 1.0 0.00 0.00 0.00 53 1022.7
20260506154310 64 290 1.0 1.0 0.00 0.00 0.00 54 1022.7
20260506154210 64 18 0.0 2.0 0.00 0.00 0.00 54 1022.7
20260506154110 64 163 0.0 2.0 0.00 0.00 0.00 53 1022.7
20260506154010 64 8 1.0 3.0 0.00 0.00 0.00 52 1022.7
20260506153910 64 175 1.0 1.0 0.00 0.00 0.00 53 1022.7
20260506153810 64 3 1.0 1.0 0.00 0.00 0.00 52 1022.7
20260506153710 64 3 1.0 1.0 0.00 0.00 0.00 52 1022.7
20260506153610 64 6 0.0 0.0 0.00 0.00 0.00 51 1022.7
20260506153510 64 17 0.0 0.0 0.00 0.00 0.00 51 1022.7
20260506153410 64 25 1.0 1.0 0.00 0.00 0.00 52 1022.7
20260506153310 64 21 1.0 1.0 0.00 0.00 0.00 54 1022.7
20260506153210 64 132 1.0 1.0 0.00 0.00 0.00 53 1022.7
20260506153110 64 32 0.0 0.0 0.00 0.00 0.00 53 1022.7
20260506153010 64 358 0.0 1.0 0.00 0.00 0.00 52 1022.7
20260506152910 64 2 0.0 1.0 0.00 0.00 0.00 53 1022.7
20260506152810 64 354 0.0 1.0 0.00 0.00 0.00 52 1022.7
20260506152710 64 6 0.0 1.0 0.00 0.00 0.00 52 1022.7
20260506152610 64 355 0.0 1.0 0.00 0.00 0.00 52 1022.7
20260506152510 64 355 0.0 1.0 0.00 0.00 0.00 52 1022.7
20260506152410 64 357 1.0 1.0 0.00 0.00 0.00 52 1022.7
20260506152310 64 358 0.0 0.0 0.00 0.00 0.00 52 1022.7
20260506152210 64 3 0.0 0.0 0.00 0.00 0.00 52 1022.7
20260506152110 64 5 0.0 0.0 0.00 0.00 0.00 53 1022.7
20260506152010 64 11 0.0 0.0 0.00 0.00 0.00 53 1022.7
20260506151910 64 6 0.0 0.0 0.00 0.00 0.00 54 1022.7
20260506151810 64 4 0.0 0.0 0.00 0.00 0.00 54 1022.7
20260506151710 64 0 0.0 0.0 0.00 0.00 0.00 54 1022.7
20260506151610 63 7 0.0 0.0 0.00 0.00 0.00 54 1022.7
20260506151510 63 7 0.0 0.0 0.00 0.00 0.00 54 1022.7
20260506151410 63 7 0.0 0.0 0.00 0.00 0.00 55 1022.7
20260506151310 63 10 0.0 0.0 0.00 0.00 0.00 55 1022.7
20260506151210 63 10 0.0 0.0 0.00 0.00 0.00 55 1022.7
20260506151110 63 9 0.0 0.0 0.00 0.00 0.00 55 1022.7
20260506151010 63 9 0.0 0.0 0.00 0.00 0.00 54 1022.7
20260506150910 63 5 0.0 0.0 0.00 0.00 0.00 52 1022.7
20260506150810 63 357 1.0 1.0 0.00 0.00 0.00 53 1022.7
20260506150710 63 1 0.0 0.0 0.00 0.00 0.00 54 1022.7
20260506150610 63 1 0.0 1.0 0.00 0.00 0.00 55 1022.7
20260506150510 63 6 0.0 0.0 0.00 0.00 0.00 56 1022.7
20260506150410 63 61 0.0 0.0 0.00 0.00 0.00 56 1022.7
20260506150310 63 6 0.0 0.0 0.00 0.00 0.00 55 1022.7
20260506150210 63 4 0.0 0.0 0.00 0.00 0.00 55 1022.7
20260506150110 63 1 0.0 1.0 0.00 0.00 0.00 55 1022.7
20260506150010 63 0 1.0 1.0 0.00 0.00 0.00 55 1023.0
20260506145910 63 0 1.0 1.0 0.00 0.00 0.00 55 1023.0
20260506145810 63 4 0.0 0.0 0.00 0.00 0.00 55 1023.0
20260506145710 63 10 0.0 0.0 0.00 0.00 0.00 56 1023.0
20260506145610 63 6 0.0 0.0 0.00 0.00 0.00 56 1023.0
20260506145510 63 1 0.0 0.0 0.00 0.00 0.00 56 1023.0
20260506145410 63 0 0.0 1.0 0.00 0.00 0.00 56 1023.0
20260506145310 63 6 1.0 1.0 0.00 0.00 0.00 57 1023.0
20260506145210 63 6 1.0 1.0 0.00 0.00 0.00 57 1023.0
20260506145110 63 327 1.0 1.0 0.00 0.00 0.00 57 1023.0
20260506145010 63 0 1.0 1.0 0.00 0.00 0.00 57 1023.0
20260506144910 63 0 1.0 1.0 0.00 0.00 0.00 57 1023.0
20260506144810 63 355 1.0 1.0 0.00 0.00 0.00 57 1023.4
20260506144710 63 5 1.0 1.0 0.00 0.00 0.00 57 1023.4
20260506144610 63 5 1.0 1.0 0.00 0.00 0.00 57 1023.4
20260506144510 63 321 1.0 2.0 0.00 0.00 0.00 57 1023.4
20260506144410 63 6 1.0 1.0 0.00 0.00 0.00 58 1023.4
20260506144310 63 351 1.0 1.0 0.00 0.00 0.00 59 1023.4
20260506144210 63 3 1.0 1.0 0.00 0.00 0.00 59 1023.4
20260506144110 63 355 1.0 1.0 0.00 0.00 0.00 58 1023.4
20260506144010 63 4 0.0 0.0 0.00 0.00 0.00 58 1023.4
20260506143910 63 2 0.0 0.0 0.00 0.00 0.00 58 1023.4
20260506143810 63 1 1.0 1.0 0.00 0.00 0.00 58 1023.4
20260506143710 63 3 1.0 1.0 0.00 0.00 0.00 59 1023.4
20260506143610 63 359 0.0 1.0 0.00 0.00 0.00 59 1023.4
20260506143510 63 3 0.0 1.0 0.00 0.00 0.00 59 1023.4
20260506143410 63 0 0.0 1.0 0.00 0.00 0.00 60 1023.4
20260506143310 63 0 0.0 1.0 0.00 0.00 0.00 60 1023.4
20260506143210 63 2 0.0 1.0 0.00 0.00 0.00 59 1023.4
20260506143110 63 1 0.0 1.0 0.00 0.00 0.00 60 1023.4
20260506143010 63 1 0.0 0.0 0.00 0.00 0.00 59 1023.4
20260506142910 63 5 0.0 0.0 0.00 0.00 0.00 60 1023.4
20260506142810 63 2 0.0 0.0 0.00 0.00 0.00 60 1023.4
20260506142710 63 3 0.0 0.0 0.00 0.00 0.00 59 1023.4
20260506142610 63 0 0.0 0.0 0.00 0.00 0.00 60 1023.4
20260506142510 63 3 0.0 1.0 0.00 0.00 0.00 60 1023.4
20260506142410 63 4 0.0 0.0 0.00 0.00 0.00 61 1023.4
20260506142310 63 13 0.0 0.0 0.00 0.00 0.00 61 1023.4
20260506142210 63 16 0.0 1.0 0.00 0.00 0.00 62 1023.4
20260506142110 63 16 0.0 1.0 0.00 0.00 0.00 62 1023.4
20260506142010 63 6 0.0 0.0 0.00 0.00 0.00 61 1023.4
20260506141910 63 0 0.0 1.0 0.00 0.00 0.00 60 1023.4
20260506141810 63 2 0.0 0.0 0.00 0.00 0.00 60 1023.4
20260506141710 63 5 0.0 0.0 0.00 0.00 0.00 61 1023.4
20260506141610 63 4 0.0 1.0 0.00 0.00 0.00 61 1023.4
20260506141510 63 0 0.0 0.0 0.00 0.00 0.00 61 1023.4
20260506141410 63 6 0.0 1.0 0.00 0.00 0.00 61 1023.4
20260506141310 63 13 0.0 0.0 0.00 0.00 0.00 61 1023.4
20260506141210 61 16 0.0 0.0 0.00 0.00 0.00 61 1023.4
20260506141110 61 7 0.0 1.0 0.00 0.00 0.00 61 1023.4
20260506141010 61 359 0.0 1.0 0.00 0.00 0.00 61 1023.4
20260506140910 61 359 0.0 1.0 0.00 0.00 0.00 61 1023.4
20260506140810 61 356 0.0 1.0 0.00 0.00 0.00 61 1023.4
20260506140710 61 16 1.0 1.0 0.00 0.00 0.00 62 1023.4
20260506140610 61 5 1.0 1.0 0.00 0.00 0.00 61 1023.4
20260506140510 61 356 0.0 0.0 0.00 0.00 0.00 61 1023.4
20260506140410 61 338 1.0 1.0 0.00 0.00 0.00 61 1023.4
20260506140310 61 3 0.0 1.0 0.00 0.00 0.00 61 1023.4
20260506140210 61 357 0.0 1.0 0.00 0.00 0.00 61 1023.4
20260506140110 61 334 1.0 1.0 0.00 0.00 0.00 60 1023.4
20260506140010 61 358 1.0 2.0 0.00 0.00 0.00 60 1023.7
20260506135910 61 357 1.0 2.0 0.00 0.00 0.00 59 1023.7
20260506135810 61 352 0.0 1.0 0.00 0.00 0.00 59 1023.7
20260506135710 61 3 0.0 1.0 0.00 0.00 0.00 59 1023.7
20260506135610 61 3 0.0 1.0 0.00 0.00 0.00 59 1023.7
20260506135510 61 356 1.0 2.0 0.00 0.00 0.00 58 1023.7
20260506135410 61 340 1.0 1.0 0.00 0.00 0.00 59 1023.7
20260506135310 61 357 1.0 1.0 0.00 0.00 0.00 59 1023.7
20260506135210 61 349 1.0 1.0 0.00 0.00 0.00 59 1023.7
20260506135110 61 333 1.0 1.0 0.00 0.00 0.00 58 1023.7
20260506135010 61 350 2.0 2.0 0.00 0.00 0.00 58 1023.7
20260506134910 61 2 1.0 2.0 0.00 0.00 0.00 58 1023.7
20260506134810 61 284 1.0 1.0 0.00 0.00 0.00 58 1023.7
20260506134710 61 359 1.0 1.0 0.00 0.00 0.00 58 1023.7
20260506134610 61 4 1.0 2.0 0.00 0.00 0.00 58 1023.7
20260506134510 61 356 1.0 1.0 0.00 0.00 0.00 59 1023.7
20260506134410 61 5 0.0 1.0 0.00 0.00 0.00 60 1023.7
20260506134310 61 5 0.0 1.0 0.00 0.00 0.00 60 1023.7
20260506134210 61 5 1.0 2.0 0.00 0.00 0.00 60 1023.7
20260506134110 61 354 1.0 1.0 0.00 0.00 0.00 60 1023.7
20260506134010 61 358 1.0 1.0 0.00 0.00 0.00 59 1023.7
20260506133910 61 3 1.0 3.0 0.00 0.00 0.00 59 1023.7
20260506133810 61 353 1.0 1.0 0.00 0.00 0.00 59 1023.7
20260506133710 61 346 1.0 1.0 0.00 0.00 0.00 61 1023.7
20260506133610 61 355 1.0 1.0 0.00 0.00 0.00 61 1024.4
20260506133510 61 277 2.0 2.0 0.00 0.00 0.00 61 1024.4
20260506133410 61 324 1.0 2.0 0.00 0.00 0.00 61 1024.4
20260506133310 61 0 1.0 2.0 0.00 0.00 0.00 61 1024.4
20260506133210 61 0 1.0 2.0 0.00 0.00 0.00 61 1024.4
20260506133110 61 6 1.0 2.0 0.00 0.00 0.00 61 1024.4
20260506133010 61 343 2.0 2.0 0.00 0.00 0.00 62 1024.4
20260506132910 61 357 1.0 1.0 0.00 0.00 0.00 62 1024.4
20260506132810 61 3 1.0 2.0 0.00 0.00 0.00 62 1024.4
20260506132710 61 340 1.0 2.0 0.00 0.00 0.00 62 1024.4
20260506132610 61 1 1.0 2.0 0.00 0.00 0.00 63 1024.4
20260506132510 61 345 1.0 1.0 0.00 0.00 0.00 63 1024.4
20260506132410 61 345 1.0 1.0 0.00 0.00 0.00 63 1024.4
20260506132310 61 8 1.0 2.0 0.00 0.00 0.00 63 1024.4
20260506132210 61 351 1.0 2.0 0.00 0.00 0.00 62 1024.4
20260506132110 61 0 1.0 2.0 0.00 0.00 0.00 63 1024.4
20260506132010 61 358 1.0 2.0 0.00 0.00 0.00 63 1024.4
20260506131910 61 358 1.0 2.0 0.00 0.00 0.00 63 1024.4
20260506131810 61 359 1.0 2.0 0.00 0.00 0.00 63 1024.4
20260506131710 61 355 1.0 1.0 0.00 0.00 0.00 62 1024.4
20260506131610 61 354 1.0 2.0 0.00 0.00 0.00 63 1024.4
20260506131510 61 355 2.0 2.0 0.00 0.00 0.00 63 1024.4
20260506131410 61 5 1.0 2.0 0.00 0.00 0.00 63 1024.4
20260506131310 63 330 2.0 2.0 0.00 0.00 0.00 63 1024.4
20260506131210 63 357 1.0 2.0 0.00 0.00 0.00 62 1024.4
20260506131110 63 353 1.0 1.0 0.00 0.00 0.00 62 1024.4
20260506131010 63 350 1.0 1.0 0.00 0.00 0.00 62 1024.4
20260506130910 63 5 1.0 1.0 0.00 0.00 0.00 62 1024.4
20260506130810 63 0 1.0 2.0 0.00 0.00 0.00 62 1024.4
20260506130710 63 353 1.0 2.0 0.00 0.00 0.00 62 1024.4
20260506130610 63 353 1.0 2.0 0.00 0.00 0.00 62 1024.4
20260506130510 63 1 1.0 1.0 0.00 0.00 0.00 61 1024.4
20260506130410 63 2 1.0 1.0 0.00 0.00 0.00 61 1024.4
20260506130310 63 357 0.0 1.0 0.00 0.00 0.00 62 1024.4
20260506130210 63 4 1.0 1.0 0.00 0.00 0.00 62 1024.4
20260506130110 63 74 1.0 1.0 0.00 0.00 0.00 62 1024.4
20260506130010 63 27 1.0 2.0 0.00 0.00 0.00 62 1024.4
20260506125910 63 79 1.0 2.0 0.00 0.00 0.00 61 1024.4
20260506125810 63 11 1.0 2.0 0.00 0.00 0.00 61 1024.4
20260506125710 63 359 1.0 1.0 0.00 0.00 0.00 61 1024.4
20260506125610 63 346 1.0 1.0 0.00 0.00 0.00 62 1024.4
20260506125510 63 343 1.0 1.0 0.00 0.00 0.00 61 1024.4
20260506125410 63 1 1.0 1.0 0.00 0.00 0.00 61 1024.4
20260506125310 63 1 1.0 1.0 0.00 0.00 0.00 61 1024.4
20260506125210 63 317 1.0 2.0 0.00 0.00 0.00 60 1024.4
20260506125110 63 6 1.0 1.0 0.00 0.00 0.00 60 1024.4
20260506125010 63 352 0.0 0.0 0.00 0.00 0.00 59 1024.4
20260506124910 63 18 1.0 1.0 0.00 0.00 0.00 58 1024.4
20260506124810 63 357 1.0 1.0 0.00 0.00 0.00 58 1024.4
20260506124710 63 5 1.0 1.0 0.00 0.00 0.00 56 1024.4
20260506124610 63 358 0.0 1.0 0.00 0.00 0.00 55 1024.4
20260506124510 64 10 0.0 0.0 0.00 0.00 0.00 55 1024.4
20260506124410 64 22 1.0 1.0 0.00 0.00 0.00 53 1024.4
20260506124310 64 4 1.0 1.0 0.00 0.00 0.00 53 1024.4
20260506124210 64 2 0.0 0.0 0.00 0.00 0.00 53 1024.4
20260506124110 64 2 0.0 0.0 0.00 0.00 0.00 53 1024.4
20260506124010 64 3 1.0 1.0 0.00 0.00 0.00 53 1024.4
20260506123910 64 0 0.0 1.0 0.00 0.00 0.00 52 1024.4
20260506123810 64 5 0.0 0.0 0.00 0.00 0.00 53 1024.4
20260506123710 64 5 0.0 1.0 0.00 0.00 0.00 53 1024.4
20260506123610 64 3 0.0 1.0 0.00 0.00 0.00 53 1024.4
20260506123510 64 4 1.0 1.0 0.00 0.00 0.00 53 1024.4
20260506123410 64 4 0.0 0.0 0.00 0.00 0.00 54 1024.4
20260506123310 64 3 0.0 0.0 0.00 0.00 0.00 54 1024.4
20260506123210 64 3 0.0 0.0 0.00 0.00 0.00 54 1024.4
20260506123110 64 3 0.0 0.0 0.00 0.00 0.00 53 1024.4
20260506123010 63 2 0.0 1.0 0.00 0.00 0.00 53 1024.4
20260506122910 63 2 0.0 1.0 0.00 0.00 0.00 53 1024.4
20260506122810 64 356 0.0 0.0 0.00 0.00 0.00 54 1024.4
20260506122710 64 356 0.0 0.0 0.00 0.00 0.00 54 1024.4
20260506122612 63 5 0.0 1.0 0.00 0.00 0.00 54 1024.4
20260506122510 63 6 0.0 1.0 0.00 0.00 0.00 53 1024.4
20260506122410 63 8 0.0 1.0 0.00 0.00 0.00 53 1024.7
20260506122310 63 0 0.0 1.0 0.00 0.00 0.00 53 1024.7
20260506122212 63 6 0.0 0.0 0.00 0.00 0.00 53 1024.7
20260506122110 63 6 0.0 0.0 0.00 0.00 0.00 53 1024.7
20260506122010 63 5 0.0 0.0 0.00 0.00 0.00 53 1024.7
20260506121910 63 3 0.0 1.0 0.00 0.00 0.00 53 1024.7
20260506121810 63 8 0.0 1.0 0.00 0.00 0.00 53 1024.7
20260506121712 63 8 0.0 1.0 0.00 0.00 0.00 53 1024.7
20260506121612 63 7 0.0 0.0 0.00 0.00 0.00 53 1024.7
20260506121512 63 7 0.0 0.0 0.00 0.00 0.00 53 1024.7
20260506121412 63 8 1.0 1.0 0.00 0.00 0.00 53 1024.7
20260506121312 63 9 1.0 1.0 0.00 0.00 0.00 52 1024.7
20260506121212 63 6 0.0 1.0 0.00 0.00 0.00 51 1025.1
20260506121112 63 5 0.0 0.0 0.00 0.00 0.00 52 1025.1
20260506121012 63 6 0.0 0.0 0.00 0.00 0.00 51 1025.1
20260506120912 63 7 1.0 1.0 0.00 0.00 0.00 52 1025.1
20260506120812 63 6 0.0 0.0 0.00 0.00 0.00 52 1025.1
20260506120712 63 5 0.0 0.0 0.00 0.00 0.00 52 1025.1
20260506120612 63 5 1.0 1.0 0.00 0.00 0.00 52 1025.1
20260506120512 63 5 0.0 0.0 0.00 0.00 0.00 52 1025.1
20260506120412 63 5 0.0 0.0 0.00 0.00 0.00 52 1025.1
20260506120312 63 5 0.0 1.0 0.00 0.00 0.00 53 1025.1
20260506120212 63 5 0.0 1.0 0.00 0.00 0.00 53 1025.1
20260506120112 63 3 1.0 1.0 0.00 0.00 0.00 53 1025.1
20260506120012 63 2 0.0 0.0 0.00 0.00 0.00 54 1025.1
20260506115912 63 3 0.0 0.0 0.00 0.00 0.00 54 1025.1
20260506115812 63 5 0.0 0.0 0.00 0.00 0.00 54 1025.1
20260506115712 63 5 0.0 0.0 0.00 0.00 0.00 54 1025.1
20260506115612 63 3 0.0 0.0 0.00 0.00 0.00 54 1025.1
20260506115512 63 3 0.0 0.0 0.00 0.00 0.00 54 1025.1
20260506115412 63 4 0.0 0.0 0.00 0.00 0.00 53 1025.1
20260506115312 63 4 0.0 0.0 0.00 0.00 0.00 52 1025.1
20260506115212 63 4 0.0 0.0 0.00 0.00 0.00 52 1025.1
20260506115112 63 4 0.0 1.0 0.00 0.00 0.00 52 1025.1
20260506115012 63 9 0.0 1.0 0.00 0.00 0.00 53 1025.1
20260506114912 63 9 0.0 1.0 0.00 0.00 0.00 53 1025.1
20260506114812 63 8 0.0 0.0 0.00 0.00 0.00 55 1025.4
20260506114712 63 9 0.0 0.0 0.00 0.00 0.00 55 1025.4
20260506114612 63 8 0.0 0.0 0.00 0.00 0.00 55 1025.4
20260506114512 63 8 0.0 0.0 0.00 0.00 0.00 55 1025.4
20260506114412 63 8 0.0 0.0 0.00 0.00 0.00 55 1025.4
20260506114312 63 9 0.0 0.0 0.00 0.00 0.00 55 1025.4
20260506114212 63 7 0.0 0.0 0.00 0.00 0.00 54 1025.4
20260506114112 63 7 0.0 0.0 0.00 0.00 0.00 54 1025.4
20260506114012 63 6 0.0 0.0 0.00 0.00 0.00 54 1025.4
20260506113912 63 7 0.0 0.0 0.00 0.00 0.00 55 1025.4
20260506113812 63 8 0.0 0.0 0.00 0.00 0.00 54 1025.4
20260506113712 63 6 0.0 1.0 0.00 0.00 0.00 55 1025.4
20260506113612 63 6 0.0 1.0 0.00 0.00 0.00 55 1025.4
20260506113512 63 8 0.0 0.0 0.00 0.00 0.00 55 1025.4
20260506113412 63 8 0.0 0.0 0.00 0.00 0.00 55 1025.4
20260506113312 63 2 0.0 0.0 0.00 0.00 0.00 55 1025.4
20260506113212 63 4 0.0 0.0 0.00 0.00 0.00 55 1025.4
20260506113112 63 3 0.0 0.0 0.00 0.00 0.00 56 1025.4
20260506113012 63 6 0.0 0.0 0.00 0.00 0.00 56 1025.4
20260506112912 63 4 1.0 1.0 0.00 0.00 0.00 56 1025.4
20260506112812 63 8 0.0 1.0 0.00 0.00 0.00 56 1025.4
20260506112712 63 8 0.0 0.0 0.00 0.00 0.00 56 1025.4
20260506112612 63 7 0.0 0.0 0.00 0.00 0.00 57 1025.4
20260506112512 63 4 0.0 1.0 0.00 0.00 0.00 56 1025.4
20260506112412 63 6 0.0 0.0 0.00 0.00 0.00 57 1025.1
20260506112312 63 6 0.0 0.0 0.00 0.00 0.00 57 1025.1
20260506112212 63 6 0.0 0.0 0.00 0.00 0.00 57 1025.1
20260506112112 63 6 0.0 0.0 0.00 0.00 0.00 57 1025.1
20260506112012 63 6 0.0 0.0 0.00 0.00 0.00 56 1025.1
20260506111912 63 6 0.0 0.0 0.00 0.00 0.00 56 1025.1
20260506111812 63 3 0.0 1.0 0.00 0.00 0.00 57 1025.1
20260506111712 63 5 1.0 1.0 0.00 0.00 0.00 56 1025.1
20260506111612 63 8 0.0 0.0 0.00 0.00 0.00 56 1025.1
20260506111512 63 8 0.0 1.0 0.00 0.00 0.00 57 1025.1
20260506111412 63 11 0.0 0.0 0.00 0.00 0.00 57 1025.1
20260506111312 63 13 0.0 0.0 0.00 0.00 0.00 56 1025.1
20260506111212 63 8 0.0 0.0 0.00 0.00 0.00 57 1025.1
20260506111112 63 8 0.0 0.0 0.00 0.00 0.00 56 1025.1
20260506111012 63 8 0.0 0.0 0.00 0.00 0.00 56 1025.1
20260506110912 63 8 0.0 1.0 0.00 0.00 0.00 56 1025.1
20260506110812 63 7 0.0 0.0 0.00 0.00 0.00 57 1025.1
20260506110712 63 6 0.0 0.0 0.00 0.00 0.00 57 1025.1
20260506110612 63 6 0.0 0.0 0.00 0.00 0.00 57 1025.1
20260506110512 63 6 0.0 0.0 0.00 0.00 0.00 58 1025.1
20260506110412 63 6 0.0 1.0 0.00 0.00 0.00 58 1025.1
20260506110312 63 5 0.0 0.0 0.00 0.00 0.00 57 1025.1
20260506110212 63 3 1.0 1.0 0.00 0.00 0.00 58 1025.1
20260506110112 63 6 1.0 1.0 0.00 0.00 0.00 58 1025.1
20260506110012 61 9 0.0 0.0 0.00 0.00 0.00 57 1025.4
20260506105912 61 9 0.0 0.0 0.00 0.00 0.00 58 1025.4
20260506105812 61 8 0.0 0.0 0.00 0.00 0.00 58 1025.4
20260506105712 61 8 0.0 0.0 0.00 0.00 0.00 58 1025.4
20260506105612 61 9 0.0 1.0 0.00 0.00 0.00 58 1025.4
20260506105512 61 9 0.0 1.0 0.00 0.00 0.00 58 1025.4
20260506105412 61 10 1.0 1.0 0.00 0.00 0.00 57 1025.4
20260506105312 61 8 0.0 1.0 0.00 0.00 0.00 57 1025.4
20260506105212 61 8 1.0 1.0 0.00 0.00 0.00 57 1025.4
20260506105112 61 9 0.0 0.0 0.00 0.00 0.00 58 1025.4
20260506105012 61 7 0.0 0.0 0.00 0.00 0.00 58 1025.4
20260506104912 61 4 1.0 1.0 0.00 0.00 0.00 57 1025.4
20260506104812 61 8 0.0 1.0 0.00 0.00 0.00 57 1025.1
20260506104712 61 7 0.0 1.0 0.00 0.00 0.00 57 1025.1
20260506104612 61 4 1.0 1.0 0.00 0.00 0.00 57 1025.1
20260506104512 61 10 0.0 1.0 0.00 0.00 0.00 57 1025.1
20260506104412 61 10 0.0 1.0 0.00 0.00 0.00 57 1025.1
20260506104312 61 7 0.0 1.0 0.00 0.00 0.00 57 1025.1
20260506104212 61 4 0.0 1.0 0.00 0.00 0.00 57 1025.1
20260506104112 61 3 0.0 1.0 0.00 0.00 0.00 58 1025.1
20260506104012 61 2 1.0 1.0 0.00 0.00 0.00 58 1025.1
20260506103912 61 4 0.0 0.0 0.00 0.00 0.00 58 1025.1
20260506103812 61 3 0.0 0.0 0.00 0.00 0.00 58 1025.1
20260506103712 61 3 0.0 0.0 0.00 0.00 0.00 57 1025.1
20260506103612 61 4 0.0 0.0 0.00 0.00 0.00 58 1025.1
20260506103512 61 4 0.0 0.0 0.00 0.00 0.00 58 1025.1
20260506103412 61 4 0.0 0.0 0.00 0.00 0.00 58 1025.1
20260506103312 61 4 0.0 0.0 0.00 0.00 0.00 58 1025.1
20260506103212 61 4 0.0 0.0 0.00 0.00 0.00 58 1025.1
20260506103112 61 4 0.0 0.0 0.00 0.00 0.00 58 1025.1
20260506103012 61 4 0.0 0.0 0.00 0.00 0.00 58 1025.1
20260506102912 61 4 0.0 1.0 0.00 0.00 0.00 58 1025.1
20260506102812 61 4 0.0 0.0 0.00 0.00 0.00 58 1025.1
20260506102712 61 4 0.0 0.0 0.00 0.00 0.00 59 1025.1
20260506102612 61 4 0.0 0.0 0.00 0.00 0.00 58 1025.1
20260506102512 61 4 0.0 0.0 0.00 0.00 0.00 58 1025.1
20260506102412 61 4 0.0 0.0 0.00 0.00 0.00 59 1025.1
20260506102312 61 4 0.0 0.0 0.00 0.00 0.00 59 1025.1
20260506102212 61 4 0.0 0.0 0.00 0.00 0.00 59 1025.1
20260506102112 61 4 0.0 0.0 0.00 0.00 0.00 59 1025.1
20260506102012 61 6 0.0 0.0 0.00 0.00 0.00 60 1025.1
20260506101912 61 6 0.0 0.0 0.00 0.00 0.00 60 1025.1
20260506101812 61 6 0.0 0.0 0.00 0.00 0.00 60 1025.1
20260506101712 61 6 0.0 0.0 0.00 0.00 0.00 59 1025.1
20260506101612 61 6 0.0 0.0 0.00 0.00 0.00 59 1025.1
20260506101512 61 6 0.0 0.0 0.00 0.00 0.00 59 1025.1
20260506101411 61 6 0.0 0.0 0.00 0.00 0.00 60 1025.1
20260506101312 61 6 0.0 0.0 0.00 0.00 0.00 61 1025.1
20260506101212 61 6 0.0 0.0 0.00 0.00 0.00 61 1025.1
20260506101112 61 6 0.0 0.0 0.00 0.00 0.00 61 1025.1
20260506101012 61 6 0.0 0.0 0.00 0.00 0.00 61 1025.1
20260506100912 61 6 0.0 0.0 0.00 0.00 0.00 62 1025.1
20260506100812 61 6 0.0 0.0 0.00 0.00 0.00 62 1025.1
20260506100712 61 6 0.0 0.0 0.00 0.00 0.00 62 1025.1
20260506100612 61 6 0.0 0.0 0.00 0.00 0.00 62 1025.1
20260506100512 61 6 0.0 0.0 0.00 0.00 0.00 62 1025.1
20260506100412 61 6 0.0 0.0 0.00 0.00 0.00 61 1025.1
20260506100312 61 5 0.0 0.0 0.00 0.00 0.00 61 1025.1
20260506100212 61 5 0.0 0.0 0.00 0.00 0.00 61 1025.1
20260506100111 61 9 0.0 1.0 0.00 0.00 0.00 62 1025.1
20260506100011 61 6 0.0 0.0 0.00 0.00 0.00 63 1025.4
20260506095911 61 3 0.0 0.0 0.00 0.00 0.00 63 1025.4
20260506095811 61 3 0.0 0.0 0.00 0.00 0.00 64 1025.4
20260506095712 61 4 0.0 0.0 0.00 0.00 0.00 64 1025.4
20260506095611 61 3 0.0 0.0 0.00 0.00 0.00 63 1025.4
20260506095512 61 3 0.0 0.0 0.00 0.00 0.00 63 1025.4
20260506095411 61 3 0.0 0.0 0.00 0.00 0.00 63 1025.4
20260506095312 61 3 0.0 0.0 0.00 0.00 0.00 62 1025.4
20260506095212 61 3 0.0 0.0 0.00 0.00 0.00 62 1025.4
20260506095111 61 3 0.0 0.0 0.00 0.00 0.00 62 1025.4
20260506095011 61 3 0.0 0.0 0.00 0.00 0.00 62 1025.4
20260506094912 61 3 0.0 0.0 0.00 0.00 0.00 61 1025.4
20260506094811 61 3 0.0 0.0 0.00 0.00 0.00 61 1025.4
20260506094711 61 3 0.0 0.0 0.00 0.00 0.00 62 1025.4
20260506094611 61 3 0.0 0.0 0.00 0.00 0.00 62 1025.4
20260506094511 61 2 0.0 0.0 0.00 0.00 0.00 62 1025.4
20260506094411 61 2 0.0 0.0 0.00 0.00 0.00 62 1025.4
20260506094311 61 2 0.0 0.0 0.00 0.00 0.00 62 1025.4
20260506094211 61 2 0.0 0.0 0.00 0.00 0.00 62 1025.4
20260506094111 61 1 0.0 0.0 0.00 0.00 0.00 63 1025.4
20260506094011 61 3 0.0 0.0 0.00 0.00 0.00 65 1025.4
20260506093912 61 3 0.0 0.0 0.00 0.00 0.00 65 1025.4
20260506093811 61 3 0.0 0.0 0.00 0.00 0.00 65 1025.4
20260506093711 61 3 0.0 0.0 0.00 0.00 0.00 65 1025.4
20260506093611 61 3 0.0 0.0 0.00 0.00 0.00 65 1025.4
20260506093512 61 1 0.0 0.0 0.00 0.00 0.00 66 1025.4
20260506093411 61 1 0.0 1.0 0.00 0.00 0.00 66 1025.4
20260506093311 61 2 0.0 0.0 0.00 0.00 0.00 66 1025.4
20260506093211 61 2 0.0 0.0 0.00 0.00 0.00 67 1025.4
20260506093111 61 2 0.0 0.0 0.00 0.00 0.00 66 1025.4
20260506093011 61 2 0.0 0.0 0.00 0.00 0.00 66 1025.4
20260506092911 61 2 0.0 0.0 0.00 0.00 0.00 66 1025.4
20260506092811 61 2 0.0 0.0 0.00 0.00 0.00 67 1025.4
20260506092711 61 2 0.0 0.0 0.00 0.00 0.00 67 1025.4
20260506092611 61 2 0.0 1.0 0.00 0.00 0.00 67 1025.4
20260506092511 61 2 0.0 0.0 0.00 0.00 0.00 66 1025.4
20260506092411 61 2 0.0 0.0 0.00 0.00 0.00 66 1025.7
20260506092311 61 2 0.0 0.0 0.00 0.00 0.00 66 1025.7
20260506092211 61 2 0.0 0.0 0.00 0.00 0.00 67 1025.7
20260506092111 61 2 0.0 0.0 0.00 0.00 0.00 67 1025.7
20260506092011 61 2 0.0 0.0 0.00 0.00 0.00 68 1025.7
20260506091911 61 2 0.0 0.0 0.00 0.00 0.00 68 1025.7
20260506091811 61 2 0.0 0.0 0.00 0.00 0.00 68 1025.7
20260506091711 61 2 0.0 0.0 0.00 0.00 0.00 68 1025.7
20260506091611 61 2 0.0 0.0 0.00 0.00 0.00 69 1025.7
20260506091511 61 1 0.0 0.0 0.00 0.00 0.00 69 1025.7
20260506091411 61 1 0.0 0.0 0.00 0.00 0.00 69 1025.7
20260506091311 61 2 0.0 0.0 0.00 0.00 0.00 69 1025.7
20260506091211 61 2 0.0 0.0 0.00 0.00 0.00 69 1025.7
20260506091111 61 2 0.0 0.0 0.00 0.00 0.00 69 1025.7
20260506091011 61 2 0.0 0.0 0.00 0.00 0.00 69 1025.7
20260506090911 61 2 0.0 0.0 0.00 0.00 0.00 70 1025.7
20260506090811 61 1 0.0 0.0 0.00 0.00 0.00 70 1025.7
20260506090711 61 1 0.0 0.0 0.00 0.00 0.00 70 1025.7
20260506090611 61 2 0.0 0.0 0.00 0.00 0.00 70 1025.7
20260506090511 61 2 0.0 0.0 0.00 0.00 0.00 71 1025.7
20260506090411 61 2 0.0 0.0 0.00 0.00 0.00 71 1025.7
20260506090311 61 2 0.0 0.0 0.00 0.00 0.00 71 1025.7
20260506090211 59 2 0.0 0.0 0.00 0.00 0.00 71 1025.7
20260506090111 59 2 0.0 0.0 0.00 0.00 0.00 71 1025.7
20260506090011 59 2 0.0 0.0 0.00 0.00 0.00 71 1025.7
20260506085911 59 2 0.0 0.0 0.00 0.00 0.00 71 1025.7
20260506085811 59 2 0.0 0.0 0.00 0.00 0.00 71 1025.7
20260506085711 59 2 0.0 0.0 0.00 0.00 0.00 71 1025.7
20260506085611 59 2 0.0 0.0 0.00 0.00 0.00 71 1025.7
20260506085511 59 1 0.0 0.0 0.00 0.00 0.00 72 1025.7
20260506085411 59 2 0.0 0.0 0.00 0.00 0.00 71 1025.7
20260506085311 59 2 0.0 0.0 0.00 0.00 0.00 71 1025.7
20260506085211 59 3 0.0 1.0 0.00 0.00 0.00 72 1025.7
20260506085111 59 4 0.0 0.0 0.00 0.00 0.00 72 1025.7
20260506085011 59 4 0.0 0.0 0.00 0.00 0.00 73 1025.7
20260506084911 59 4 0.0 0.0 0.00 0.00 0.00 73 1025.7
20260506084811 59 4 0.0 0.0 0.00 0.00 0.00 73 1025.7
20260506084711 59 4 0.0 0.0 0.00 0.00 0.00 72 1025.7
20260506084611 59 4 0.0 0.0 0.00 0.00 0.00 72 1025.7
20260506084511 59 4 0.0 0.0 0.00 0.00 0.00 72 1025.7
20260506084411 59 4 0.0 0.0 0.00 0.00 0.00 72 1025.7
20260506084311 59 4 0.0 0.0 0.00 0.00 0.00 72 1025.7
20260506084211 59 4 0.0 0.0 0.00 0.00 0.00 72 1025.7
20260506084111 59 4 0.0 0.0 0.00 0.00 0.00 72 1025.7
20260506084011 59 4 0.0 0.0 0.00 0.00 0.00 72 1025.7
20260506083911 59 4 0.0 0.0 0.00 0.00 0.00 72 1025.7
20260506083811 59 4 0.0 0.0 0.00 0.00 0.00 72 1025.7
20260506083711 59 4 0.0 0.0 0.00 0.00 0.00 72 1025.7
20260506083611 59 4 0.0 0.0 0.00 0.00 0.00 73 1025.7
20260506083511 59 4 0.0 0.0 0.00 0.00 0.00 73 1025.7
20260506083411 59 4 0.0 0.0 0.00 0.00 0.00 72 1025.7
20260506083311 59 4 0.0 0.0 0.00 0.00 0.00 72 1025.7
20260506083211 59 4 0.0 0.0 0.00 0.00 0.00 72 1025.7
20260506083111 59 4 0.0 0.0 0.00 0.00 0.00 72 1025.7
20260506083011 59 4 0.0 0.0 0.00 0.00 0.00 72 1025.7
20260506082911 59 4 0.0 0.0 0.00 0.00 0.00 72 1025.7
20260506082811 59 4 0.0 0.0 0.00 0.00 0.00 72 1025.7
20260506082711 59 4 0.0 0.0 0.00 0.00 0.00 72 1025.7
20260506082611 59 4 0.0 0.0 0.00 0.00 0.00 72 1025.7
20260506082511 59 4 0.0 0.0 0.00 0.00 0.00 72 1025.7
20260506082411 59 4 0.0 0.0 0.00 0.00 0.00 72 1025.7
20260506082312 59 4 0.0 0.0 0.00 0.00 0.00 73 1025.7
20260506082212 59 4 0.0 0.0 0.00 0.00 0.00 73 1025.7
20260506082111 59 4 0.0 0.0 0.00 0.00 0.00 72 1025.7
20260506082011 59 4 0.0 0.0 0.00 0.00 0.00 72 1025.7
20260506081911 59 4 0.0 0.0 0.00 0.00 0.00 72 1025.7
20260506081811 59 2 0.0 1.0 0.00 0.00 0.00 72 1025.7
20260506081711 59 4 0.0 0.0 0.00 0.00 0.00 73 1025.7
20260506081611 59 4 0.0 0.0 0.00 0.00 0.00 73 1025.7
20260506081511 59 4 0.0 0.0 0.00 0.00 0.00 73 1025.7
20260506081411 59 4 0.0 1.0 0.00 0.00 0.00 73 1025.7
20260506081311 59 5 0.0 0.0 0.00 0.00 0.00 73 1025.7
20260506081211 59 5 0.0 0.0 0.00 0.00 0.00 73 1025.7
20260506081111 59 5 0.0 0.0 0.00 0.00 0.00 73 1025.7
20260506081011 59 5 0.0 0.0 0.00 0.00 0.00 72 1025.7
20260506080911 59 5 0.0 0.0 0.00 0.00 0.00 72 1025.7
20260506080811 59 5 0.0 0.0 0.00 0.00 0.00 72 1025.7
20260506080711 59 5 0.0 0.0 0.00 0.00 0.00 72 1025.7
20260506080611 59 5 0.0 0.0 0.00 0.00 0.00 72 1025.7
20260506080511 59 5 0.0 0.0 0.00 0.00 0.00 72 1025.7
20260506080411 59 5 0.0 0.0 0.00 0.00 0.00 71 1025.7
20260506080311 59 5 0.0 0.0 0.00 0.00 0.00 71 1025.7
20260506080211 59 5 0.0 0.0 0.00 0.00 0.00 72 1025.7
20260506080111 59 5 0.0 0.0 0.00 0.00 0.00 71 1025.7
20260506073511 57 5 0.0 0.0 0.00 0.00 0.00 70 1025.7
20260506073411 57 5 0.0 0.0 0.00 0.00 0.00 70 1025.7
20260506073311 57 5 0.0 0.0 0.00 0.00 0.00 70 1025.7
20260506073211 57 5 0.0 0.0 0.00 0.00 0.00 70 1025.7
20260506073111 57 5 0.0 0.0 0.00 0.00 0.00 70 1025.7
20260506073011 57 5 0.0 0.0 0.00 0.00 0.00 70 1025.7
20260506072911 57 5 0.0 0.0 0.00 0.00 0.00 70 1025.7
20260506072811 57 5 0.0 0.0 0.00 0.00 0.00 70 1025.7
20260506072711 57 5 0.0 0.0 0.00 0.00 0.00 70 1025.7
20260506072611 57 5 0.0 0.0 0.00 0.00 0.00 70 1025.7
20260506072511 57 5 0.0 0.0 0.00 0.00 0.00 70 1025.7
20260506072411 57 5 0.0 0.0 0.00 0.00 0.00 70 1025.7
20260506072311 57 5 0.0 0.0 0.00 0.00 0.00 70 1025.7
20260506072211 57 5 0.0 0.0 0.00 0.00 0.00 70 1025.7
20260506072111 57 5 0.0 0.0 0.00 0.00 0.00 70 1025.7
20260506072011 57 5 0.0 0.0 0.00 0.00 0.00 70 1025.7
20260506071911 57 5 0.0 0.0 0.00 0.00 0.00 70 1025.7
20260506071811 57 5 0.0 0.0 0.00 0.00 0.00 70 1025.7
20260506071711 57 5 0.0 0.0 0.00 0.00 0.00 70 1025.7
20260506071611 57 5 0.0 0.0 0.00 0.00 0.00 70 1025.7
20260506071511 57 5 0.0 0.0 0.00 0.00 0.00 70 1025.7
20260506071411 57 5 0.0 0.0 0.00 0.00 0.00 69 1025.7
20260506071311 57 5 0.0 0.0 0.00 0.00 0.00 69 1025.7
20260506071211 57 5 0.0 0.0 0.00 0.00 0.00 69 1025.7
20260506071111 57 5 0.0 0.0 0.00 0.00 0.00 69 1025.7
20260506071011 57 5 0.0 0.0 0.00 0.00 0.00 69 1025.7
20260506070911 57 5 0.0 0.0 0.00 0.00 0.00 69 1025.7
20260506070811 57 5 0.0 0.0 0.00 0.00 0.00 69 1025.7
20260506070711 57 5 0.0 0.0 0.00 0.00 0.00 69 1025.7
20260506070611 57 5 0.0 0.0 0.00 0.00 0.00 69 1025.7
20260506070511 57 5 0.0 0.0 0.00 0.00 0.00 69 1025.7
20260506070411 57 5 0.0 0.0 0.00 0.00 0.00 70 1025.7
20260506070311 57 5 0.0 0.0 0.00 0.00 0.00 70 1025.7
20260506070211 57 5 0.0 0.0 0.00 0.00 0.00 71 1025.7
20260506070111 57 5 0.0 0.0 0.00 0.00 0.00 70 1025.7